M I D A S
Marine Information and Data Acquisition System
Tripno 592 of the Zeeleeuw from 2003-09-17 06:21:40 to 2003-09-17 11:50:16
Back to CruiseResearch ActivitiesStationsMapUnderway DataData graphs

EquipmentUnitsComment
TimeDGPSUTC
LatitudeDGPSDM.mWGS84
LongitudeDGPSDM.mWGS84
TemperatureSBE03/SBE38deg celciusITS90
ConductivitySBE21S/mITS90
SalinitySBE21 Practical Salinity Units
ChlorophylAChelsea fluorimeterg/lCalibrated in Aceton
Missing or incorrect values are displayed as -999
Sea surface data collected by the RV Zeeleeuw from 2003-09-17 06:21:40 to 2003-09-17 11:50:16
                                                                                    Next 1000 lines
Time Latitude Longitude Temperature Conductivity Salinity ChlorophylA
2003-09-17 06:21:50 51°13.75 2°55.7 23.684557 0.164422 0.847815 -0.410446
2003-09-17 06:21:54 51°13.76 2°55.7 23.528911 0.164422 0.847901 -0.410446
2003-09-17 06:22:00 51°13.77 2°55.69 23.590656 0.164422 0.847987 -0.444155
2003-09-17 06:22:04 51°13.77 2°55.68 23.906521 0.164422 0.848024 -0.410446
2003-09-17 06:22:10 51°13.78 2°55.67 24.03207 0.164422 0.848061 -0.444155
2003-09-17 06:22:14 51°13.79 2°55.67 24.03207 0.164422 0.848061 -0.444155
2003-09-17 06:22:20 51°13.8 2°55.66 24.035779 0.164422 0.848123 -0.444155
2003-09-17 06:22:24 51°13.8 2°55.65 24.067016 0.164422 0.848135 -0.410446
2003-09-17 06:22:30 51°13.81 2°55.65 24.100494 0.164422 0.848123 -0.444155
2003-09-17 06:22:34 51°13.82 2°55.64 23.505377 0.164422 0.848098 -0.444155
2003-09-17 06:22:40 51°13.83 2°55.63 23.758455 0.164422 0.848061 -0.410446
2003-09-17 06:22:46 51°13.84 2°55.62 23.758455 0.164422 0.848061 -0.410446
2003-09-17 06:22:50 51°13.85 2°55.62 23.853864 0.164422 0.848036 -0.410446
2003-09-17 06:22:54 51°13.85 2°55.61 23.697353 0.164422 0.848012 -0.444155
2003-09-17 06:22:58 51°13.86 2°55.61 23.603045 0.164422 0.848024 -0.444155
2003-09-17 06:23:04 51°13.87 2°55.6 24.043733 0.164422 0.848061 -0.410446
2003-09-17 06:23:10 51°13.88 2°55.59 23.919316 0.164422 0.84811 -0.410446
2003-09-17 06:23:14 51°13.89 2°55.58 23.919316 0.164422 0.84811 -0.410446
2003-09-17 06:23:20 51°13.9 2°55.57 24.045492 0.164422 0.84816 -0.410446
2003-09-17 06:23:24 51°13.91 2°55.57 23.825604 0.164317 0.847647 -0.410446
2003-09-17 06:23:30 51°13.92 2°55.56 24.016197 0.164422 0.848246 -0.444155
2003-09-17 06:23:34 51°13.93 2°55.55 24.080164 0.164422 0.848258 -0.444155
2003-09-17 06:23:38 51°13.94 2°55.55 24.112146 0.164317 0.847721 -0.444155
2003-09-17 06:23:44 51°13.95 2°55.54 24.112146 0.164317 0.847721 -0.444155
2003-09-17 06:23:50 51°13.96 2°55.53 23.956843 0.164317 0.847708 -0.444155
2003-09-17 06:23:54 51°13.97 2°55.53 23.864023 0.164317 0.847708 -0.444155
2003-09-17 06:24:00 51°13.98 2°55.52 24.021705 0.164317 0.847708 -0.410446
2003-09-17 06:24:04 51°13.99 2°55.52 24.085668 0.164317 0.847708 -0.444155
2003-09-17 06:24:10 51°14 2°55.51 23.96048 0.164317 0.847733 -0.444155
2003-09-17 06:24:14 51°14 2°55.5 23.96048 0.164317 0.847733 -0.444155
2003-09-17 06:24:20 51°14.02 2°55.49 24.179464 0.164317 0.847758 -0.444155
2003-09-17 06:24:24 51°14.03 2°55.49 24.118755 0.164317 0.847795 -0.444155
2003-09-17 06:24:30 51°14.04 2°55.48 24.149765 0.164317 0.847844 -0.444155
2003-09-17 06:24:34 51°14.05 2°55.47 23.869159 0.164317 0.847869 -0.410446
2003-09-17 06:24:38 51°14.06 2°55.47 24.153201 0.164317 0.847881 -0.410446
2003-09-17 06:24:44 51°14.07 2°55.46 24.153201 0.164317 0.847881 -0.410446
2003-09-17 06:24:50 51°14.08 2°55.45 24.217735 0.164317 0.847906 -0.410446
2003-09-17 06:24:54 51°14.09 2°55.44 23.746899 0.164317 0.847893 -0.410446
2003-09-17 06:25:00 51°14.1 2°55.44 24.091476 0.164317 0.847893 -0.444155
2003-09-17 06:25:04 51°14.11 2°55.43 24.190188 0.164317 0.847906 -0.410446
2003-09-17 06:25:10 51°14.12 2°55.42 24.097323 0.164317 0.847906 -0.410446
2003-09-17 06:25:14 51°14.13 2°55.41 24.097323 0.164317 0.847906 -0.410446
2003-09-17 06:25:20 51°14.15 2°55.4 24.188815 0.164317 0.84793 -0.444155
2003-09-17 06:25:24 51°14.16 2°55.39 24.188891 0.164317 0.847955 -0.444155
2003-09-17 06:25:30 51°14.17 2°55.38 24.470698 0.164317 0.84798 -0.444155
2003-09-17 06:25:34 51°14.18 2°55.37 24.065411 0.164317 0.848004 -0.410446
2003-09-17 06:25:38 51°14.19 2°55.36 24.569087 0.164317 0.848029 -0.410446
2003-09-17 06:25:44 51°14.2 2°55.35 24.569087 0.164317 0.848029 -0.410446
2003-09-17 06:25:50 51°14.22 2°55.33 23.9756 0.164317 0.848054 -0.444155
2003-09-17 06:25:54 51°14.23 2°55.32 23.787586 0.164317 0.848091 -0.410446
2003-09-17 06:26:00 51°14.24 2°55.3 23.757649 0.164213 0.847553 -0.410446
2003-09-17 06:26:04 51°14.25 2°55.29 24.228148 0.164317 0.848115 -0.410446
2003-09-17 06:26:10 51°14.26 2°55.27 23.758493 0.164317 0.848128 -0.444155
2003-09-17 06:26:14 51°14.27 2°55.25 23.758493 0.164317 0.848128 -0.444155
2003-09-17 06:26:18 51°14.28 2°55.24 23.508498 0.164317 0.848152 -0.410446
2003-09-17 06:26:24 51°14.29 2°55.22 23.821806 0.164317 0.848152 -0.410446
2003-09-17 06:26:30 51°14.3 2°55.2 23.853059 0.164213 0.847614 -0.444155
2003-09-17 06:26:34 51°14.31 2°55.18 24.323285 0.164213 0.847627 -0.444155
2003-09-17 06:26:40 51°14.32 2°55.16 24.199461 0.164213 0.847639 -0.410446
2003-09-17 06:26:44 51°14.33 2°55.14 24.199461 0.164213 0.847639 -0.410446
2003-09-17 06:26:50 51°14.34 2°55.12 24.32538 0.164213 0.847651 -0.444155
2003-09-17 06:26:54 51°14.35 2°55.1 24.04293 0.164213 0.847664 -0.444155
2003-09-17 06:26:58 51°14.36 2°55.09 23.793648 0.164213 0.847676 -0.410446
2003-09-17 06:27:04 51°14.37 2°55.06 23.922457 0.164213 0.847701 -0.410446
2003-09-17 06:27:10 51°14.38 2°55.04 24.36148 0.164213 0.847713 -0.410446
2003-09-17 06:27:14 51°14.38 2°55.02 24.36148 0.164213 0.847713 -0.410446
2003-09-17 06:27:20 51°14.39 2°55 24.078903 0.164213 0.84775 -0.444155
2003-09-17 06:27:24 51°14.4 2°54.98 23.669607 0.164213 0.847762 -0.410446
2003-09-17 06:27:30 51°14.41 2°54.95 24.140334 0.164213 0.847775 -0.444155
2003-09-17 06:27:34 51°14.42 2°54.94 23.961897 0.164213 0.847787 -0.444155
2003-09-17 06:27:40 51°14.43 2°54.91 24.344384 0.164213 0.847812 -0.444155
2003-09-17 06:27:44 51°14.44 2°54.89 24.344384 0.164213 0.847812 -0.444155
2003-09-17 06:27:50 51°14.45 2°54.86 23.812639 0.164213 0.847849 -0.410446
2003-09-17 06:27:54 51°14.46 2°54.84 24.257282 0.164213 0.847873 -0.410446
2003-09-17 06:27:58 51°14.46 2°54.82 24.034709 0.164213 0.847886 -0.410446
2003-09-17 06:28:04 51°14.47 2°54.79 23.910544 0.164213 0.847898 -0.410446
2003-09-17 06:28:10 51°14.47 2°54.76 23.562908 0.164213 0.847898 -0.444155
2003-09-17 06:28:14 51°14.47 2°54.74 23.562908 0.164213 0.847898 -0.444155
2003-09-17 06:28:20 51°14.47 2°54.71 23.777263 0.164213 0.847861 -0.444155
2003-09-17 06:28:24 51°14.48 2°54.68 23.967294 0.164213 0.847836 -0.410446
2003-09-17 06:28:30 51°14.48 2°54.65 24.001468 0.164213 0.847824 -0.410446
2003-09-17 06:28:34 51°14.47 2°54.63 24.073858 0.164213 0.847849 -0.444155
2003-09-17 06:28:40 51°14.47 2°54.6 24.545091 0.164213 0.847898 -0.376736
2003-09-17 06:28:44 51°14.47 2°54.58 24.545091 0.164213 0.847898 -0.376736
2003-09-17 06:28:50 51°14.46 2°54.54 24.321799 0.164213 0.84796 -0.410446
2003-09-17 06:28:54 51°14.45 2°54.52 24.246835 0.164213 0.848022 -0.410446
2003-09-17 06:29:00 51°14.45 2°54.49 24.090865 0.164213 0.848046 -0.410446
2003-09-17 06:29:04 51°14.44 2°54.47 24.090636 0.164213 0.848059 -0.410446
2003-09-17 06:29:10 51°14.43 2°54.44 23.839869 0.164213 0.848083 -0.444155
2003-09-17 06:29:14 51°14.42 2°54.42 23.839869 0.164213 0.848083 -0.444155
2003-09-17 06:29:20 51°14.41 2°54.39 23.652848 0.164213 0.848083 -0.444155
2003-09-17 06:29:24 51°14.41 2°54.37 23.687824 0.164213 0.848083 -0.444155
2003-09-17 06:29:30 51°14.4 2°54.35 24.625932 0.164213 0.848096 -0.410446
2003-09-17 06:29:34 51°14.39 2°54.33 23.815976 0.164213 0.848108 -0.410446
2003-09-17 06:29:40 51°14.38 2°54.3 24.036812 0.164109 0.847557 -0.444155
2003-09-17 06:29:44 51°14.37 2°54.28 24.036812 0.164109 0.847557 -0.444155
2003-09-17 06:29:50 51°14.36 2°54.25 24.573225 0.164109 0.84757 -0.410446
2003-09-17 06:29:54 51°14.36 2°54.23 23.72935 0.164109 0.847582 -0.410446
2003-09-17 06:30:00 51°14.35 2°54.19 23.732538 0.164109 0.847595 -0.410446
2003-09-17 06:30:04 51°14.34 2°54.17 24.048283 0.164109 0.847607 -0.410446
2003-09-17 06:30:10 51°14.33 2°54.14 24.26807 0.164109 0.847632 -0.410446
2003-09-17 06:30:14 51°14.32 2°54.12 24.26807 0.164109 0.847632 -0.410446
2003-09-17 06:30:20 51°14.31 2°54.09 24.113407 0.164109 0.847632 -0.410446
2003-09-17 06:30:24 51°14.31 2°54.07 23.800785 0.164109 0.847656 -0.410446
2003-09-17 06:30:30 51°14.3 2°54.04 23.894951 0.164109 0.847681 -0.410446
2003-09-17 06:30:34 51°14.29 2°54.02 23.833235 0.164109 0.847718 -0.444155
2003-09-17 06:30:40 51°14.28 2°53.99 24.241191 0.164109 0.84773 -0.444155
2003-09-17 06:30:44 51°14.27 2°53.97 24.241191 0.164109 0.84773 -0.444155
2003-09-17 06:30:50 51°14.26 2°53.94 23.862988 0.164109 0.847755 -0.410446
2003-09-17 06:30:54 51°14.25 2°53.92 24.057689 0.164109 0.847767 -0.410446
2003-09-17 06:30:58 51°14.25 2°53.9 23.866476 0.164109 0.847792 -0.444155
2003-09-17 06:31:06 51°14.23 2°53.86 24.493655 0.164109 0.847804 -0.410446
2003-09-17 06:31:10 51°14.23 2°53.84 23.807921 0.164109 0.847829 -0.444155
2003-09-17 06:31:14 51°14.22 2°53.81 23.807921 0.164109 0.847829 -0.444155
2003-09-17 06:31:20 51°14.21 2°53.78 23.809148 0.164109 0.847841 -0.444155
2003-09-17 06:31:26 51°14.2 2°53.75 24.126318 0.164109 0.847866 -0.444155
2003-09-17 06:31:30 51°14.2 2°53.73 24.001813 0.164109 0.847879 -0.410446
2003-09-17 06:31:34 51°14.19 2°53.71 24.00166 0.164109 0.847891 -0.410446
2003-09-17 06:31:40 51°14.18 2°53.68 24.222312 0.164109 0.847916 -0.410446
2003-09-17 06:31:44 51°14.17 2°53.66 24.222312 0.164109 0.847916 -0.410446
2003-09-17 06:31:50 51°14.16 2°53.63 23.850299 0.164109 0.84794 -0.410446
2003-09-17 06:31:54 51°14.16 2°53.61 24.037347 0.164109 0.847965 -0.410446
2003-09-17 06:31:58 51°14.15 2°53.58 24.379256 0.164109 0.847977 -0.410446
2003-09-17 06:32:04 51°14.14 2°53.55 23.659267 0.164109 0.848002 -0.410446
2003-09-17 06:32:10 51°14.13 2°53.52 24.037347 0.164005 0.847451 -0.410446
2003-09-17 06:32:14 51°14.12 2°53.5 24.037347 0.164005 0.847451 -0.410446
2003-09-17 06:32:20 51°14.11 2°53.47 24.198392 0.164109 0.848027 -0.444155
2003-09-17 06:32:26 51°14.1 2°53.44 24.008661 0.164005 0.847488 -0.410446
2003-09-17 06:32:30 51°14.09 2°53.42 23.981685 0.164109 0.848076 -0.444155
2003-09-17 06:32:34 51°14.09 2°53.4 24.169579 0.164005 0.847525 -0.410446
2003-09-17 06:32:40 51°14.08 2°53.37 24.512235 0.164005 0.84755 -0.410446
2003-09-17 06:32:46 51°14.07 2°53.33 24.512235 0.164005 0.84755 -0.410446
2003-09-17 06:32:50 51°14.06 2°53.31 23.981991 0.164005 0.847575 -0.410446
2003-09-17 06:32:54 51°14.05 2°53.29 24.011147 0.164005 0.847599 -0.410446
2003-09-17 06:33:00 51°14.04 2°53.26 24.670944 0.164005 0.847599 -0.410446
2003-09-17 06:33:04 51°14.04 2°53.24 24.514971 0.164005 0.847624 -0.410446
2003-09-17 06:33:10 51°14.03 2°53.21 24.04901 0.164005 0.847624 -0.477864
2003-09-17 06:33:14 51°14.02 2°53.19 24.04901 0.164005 0.847624 -0.477864
2003-09-17 06:33:20 51°14.01 2°53.16 24.204726 0.164005 0.847649 -0.444155
2003-09-17 06:33:24 51°14 2°53.13 24.019448 0.164005 0.847661 -0.410446
2003-09-17 06:33:30 51°13.99 2°53.1 23.893265 0.164005 0.847674 -0.444155
2003-09-17 06:33:34 51°13.99 2°53.08 24.583131 0.164005 0.847711 -0.444155
2003-09-17 06:33:40 51°13.98 2°53.05 23.777339 0.164005 0.847723 -0.410446
2003-09-17 06:33:46 51°13.96 2°53.02 23.777339 0.164005 0.847723 -0.410446
2003-09-17 06:33:50 51°13.96 2°53 24.369664 0.164005 0.847735 -0.410446
2003-09-17 06:33:54 51°13.95 2°52.98 24.216476 0.164005 0.84776 -0.444155
2003-09-17 06:34:00 51°13.94 2°52.94 23.717406 0.164005 0.847772 -0.444155
2003-09-17 06:34:04 51°13.93 2°52.92 23.431298 0.164005 0.847785 -0.444155
2003-09-17 06:34:10 51°13.92 2°52.89 23.811642 0.164005 0.847797 -0.444155
2003-09-17 06:34:14 51°13.92 2°52.87 23.811642 0.164005 0.847797 -0.444155
2003-09-17 06:34:18 51°13.91 2°52.85 23.995614 0.164005 0.847822 -0.410446
2003-09-17 06:34:24 51°13.9 2°52.82 23.909548 0.164005 0.847822 -0.410446
2003-09-17 06:34:30 51°13.89 2°52.78 24.095947 0.164005 0.847847 -0.444155
2003-09-17 06:34:34 51°13.88 2°52.76 23.849148 0.164005 0.847871 -0.444155
2003-09-17 06:34:40 51°13.87 2°52.73 23.850835 0.164005 0.847884 -0.410446
2003-09-17 06:34:44 51°13.86 2°52.71 23.850835 0.164005 0.847884 -0.410446
2003-09-17 06:34:50 51°13.85 2°52.68 23.849187 0.164005 0.847908 -0.410446
2003-09-17 06:34:54 51°13.85 2°52.66 23.911578 0.164005 0.847921 -0.410446
2003-09-17 06:35:00 51°13.83 2°52.63 23.926019 0.164005 0.847946 -0.444155
2003-09-17 06:35:06 51°13.82 2°52.59 21.230761 0.163901 0.848124 0.230033
2003-09-17 06:35:10 51°13.82 2°52.57 19.355808 0.164318 0.855305 0.027777
2003-09-17 06:35:14 51°13.81 2°52.55 19.355808 0.164318 0.855305 0.027777
2003-09-17 06:35:20 51°13.8 2°52.52 18.8956 0.137782 0.714917 1.005349
2003-09-17 06:35:24 51°13.79 2°52.5 18.752356 2.498009 16.064545 1.072768
2003-09-17 06:35:30 51°13.78 2°52.47 18.805351 3.524114 24.166317 2.353725
2003-09-17 06:35:34 51°13.77 2°52.45 18.58004 4.068496 28.572817 2.117759
2003-09-17 06:35:38 51°13.77 2°52.42 18.565792 4.158979 29.812456 1.679537
2003-09-17 06:35:44 51°13.76 2°52.39 18.565792 4.158979 29.812456 1.679537
2003-09-17 06:35:50 51°13.75 2°52.36 18.561083 4.273515 31.022444 1.477281
2003-09-17 06:35:54 51°13.74 2°52.34 18.50877 4.349145 31.910823 1.342443
2003-09-17 06:36:00 51°13.73 2°52.31 18.517947 4.418028 32.579186 1.342443
2003-09-17 06:36:04 51°13.72 2°52.29 18.44802 4.434064 32.809972 1.308734
2003-09-17 06:36:10 51°13.71 2°52.26 18.556003 4.405478 32.67654 1.207606
2003-09-17 06:36:14 51°13.7 2°52.23 18.556003 4.405478 32.67654 1.207606
2003-09-17 06:36:20 51°13.69 2°52.2 18.438917 4.411493 32.797855 1.173896
2003-09-17 06:36:24 51°13.69 2°52.18 18.55877 4.384595 32.627514 1.140187
2003-09-17 06:36:30 51°13.67 2°52.15 18.47437 4.441875 33.145386 1.140187
2003-09-17 06:36:34 51°13.67 2°52.13 18.581114 4.425525 33.02503 1.072768
2003-09-17 06:36:40 51°13.66 2°52.1 18.403571 4.43639 33.123803 1.106477
2003-09-17 06:36:44 51°13.65 2°52.08 18.403571 4.43639 33.123803 1.106477
2003-09-17 06:36:50 51°13.64 2°52.04 18.452488 4.433015 33.102527 1.072768
2003-09-17 06:36:54 51°13.63 2°52.02 18.47408 4.42658 33.058574 1.072768
2003-09-17 06:37:00 51°13.62 2°51.99 18.434696 4.435547 33.145608 1.072768
2003-09-17 06:37:04 51°13.61 2°51.97 18.384524 4.436496 33.165104 1.039059
2003-09-17 06:37:10 51°13.6 2°51.94 18.489794 4.443037 33.23313 1.005349
2003-09-17 06:37:14 51°13.6 2°51.92 18.489794 4.443037 33.23313 1.005349
2003-09-17 06:37:20 51°13.59 2°51.88 18.396201 4.437552 33.197658 1.039059
2003-09-17 06:37:26 51°13.58 2°51.85 18.459272 4.439345 33.213825 1.106477
2003-09-17 06:37:30 51°13.57 2°51.83 18.528485 4.437446 33.204308 1.039059
2003-09-17 06:37:34 51°13.56 2°51.81 18.414624 4.435337 33.194181 1.039059
2003-09-17 06:37:40 51°13.55 2°51.78 18.544724 4.442932 33.265326 1.072768
2003-09-17 06:37:44 51°13.54 2°51.76 18.544724 4.442932 33.265326 1.072768
2003-09-17 06:37:50 51°13.53 2°51.72 18.357312 4.419935 33.07279 1.005349
2003-09-17 06:37:54 51°13.53 2°51.7 18.39674 4.438185 33.228469 1.039059
2003-09-17 06:38:00 51°13.51 2°51.67 18.566577 4.437236 33.224 1.039059
2003-09-17 06:38:04 51°13.51 2°51.65 18.388293 4.433966 33.198931 1.039059
2003-09-17 06:38:10 51°13.5 2°51.62 18.358265 4.452954 33.364435 1.039059
2003-09-17 06:38:14 51°13.49 2°51.6 18.358265 4.452954 33.364435 1.039059
2003-09-17 06:38:18 51°13.48 2°51.58 18.390032 4.272476 31.867812 1.039059
2003-09-17 06:38:24 51°13.47 2°51.54 18.322961 4.460655 33.441861 1.005349
2003-09-17 06:38:30 51°13.46 2°51.51 18.355738 4.459495 33.435049 1.072768
2003-09-17 06:38:34 51°13.46 2°51.49 18.359549 4.461711 33.457146 1.005349
2003-09-17 06:38:40 51°13.45 2°51.46 18.533444 4.462766 33.471266 1.005349
2003-09-17 06:38:44 51°13.44 2°51.44 18.533444 4.462766 33.471266 1.005349
2003-09-17 06:38:50 51°13.43 2°51.41 18.401004 4.463926 33.481591 1.039059
2003-09-17 06:38:54 51°13.42 2°51.38 18.438462 4.46572 33.499573 1.005349
2003-09-17 06:39:00 51°13.41 2°51.35 18.508233 4.46593 33.500758 1.005349
2003-09-17 06:39:04 51°13.4 2°51.33 18.515301 4.467196 33.510213 1.039059
2003-09-17 06:39:10 51°13.39 2°51.3 18.413134 4.469095 33.525567 1.072768
2003-09-17 06:39:14 51°13.39 2°51.28 18.413134 4.469095 33.525567 1.072768
2003-09-17 06:39:18 51°13.38 2°51.26 18.548938 4.469412 33.526464 1.005349
2003-09-17 06:39:26 51°13.37 2°51.21 18.347162 4.469834 33.527661 1.005349
2003-09-17 06:39:30 51°13.36 2°51.19 18.451371 4.470889 33.536516 1.005349
2003-09-17 06:39:34 51°13.35 2°51.17 18.543154 4.473315 33.555124 1.072768
2003-09-17 06:39:40 51°13.34 2°51.14 18.441772 4.474475 33.562518 1.005349
2003-09-17 06:39:46 51°13.33 2°51.11 18.441772 4.474475 33.562518 1.005349
2003-09-17 06:39:50 51°13.32 2°51.09 18.54365 4.475741 33.570797 1.005349
2003-09-17 06:39:54 51°13.32 2°51.07 18.449137 4.476269 33.576986 1.039059
2003-09-17 06:40:00 51°13.31 2°51.03 18.445082 4.458757 33.425932 1.039059
2003-09-17 06:40:04 51°13.3 2°51.01 18.452364 4.476585 33.576707 1.005349
2003-09-17 06:40:10 51°13.29 2°50.98 18.484212 4.477535 33.587614 1.039059
2003-09-17 06:40:14 51°13.28 2°50.96 18.484212 4.477535 33.587614 1.039059
2003-09-17 06:40:20 51°13.27 2°50.93 18.390363 4.481755 33.618928 1.005349
2003-09-17 06:40:24 51°13.26 2°50.91 18.659817 4.48397 33.635175 0.97164
2003-09-17 06:40:30 51°13.25 2°50.88 18.455591 4.483864 33.63429 1.005349
2003-09-17 06:40:34 51°13.25 2°50.85 18.391771 4.479961 33.603284 1.005349
2003-09-17 06:40:38 51°13.24 2°50.83 18.357851 4.480489 33.608299 1.005349
2003-09-17 06:40:44 51°13.23 2°50.8 18.357851 4.480489 33.608299 1.005349
2003-09-17 06:40:50 51°13.22 2°50.77 18.4577 4.484076 33.637237 1.005349
2003-09-17 06:40:54 51°13.21 2°50.75 18.394255 4.484603 33.639902 1.005349
2003-09-17 06:41:00 51°13.2 2°50.72 18.389287 4.483548 33.631633 1.005349
2003-09-17 06:41:04 51°13.19 2°50.7 18.48996 4.484919 33.640794 1.005349
2003-09-17 06:41:10 51°13.18 2°50.66 18.453936 4.486502 33.652315 0.97164
2003-09-17 06:41:14 51°13.18 2°50.64 18.453936 4.486502 33.652315 0.97164
2003-09-17 06:41:18 51°13.17 2°50.62 18.355779 4.486607 33.653789 0.93793
2003-09-17 06:41:26 51°13.15 2°50.58 18.591973 4.48724 33.660869 0.93793
2003-09-17 06:41:30 51°13.15 2°50.56 18.457535 4.488506 33.671498 1.039059
2003-09-17 06:41:34 51°13.14 2°50.54 18.560588 4.487873 33.667361 1.039059
2003-09-17 06:41:38 51°13.13 2°50.52 18.452736 4.492199 33.702504 1.005349
2003-09-17 06:41:44 51°13.12 2°50.48 18.452736 4.492199 33.702504 1.005349
2003-09-17 06:41:50 51°13.11 2°50.45 18.416362 4.490616 33.690983 1.005349
2003-09-17 06:41:54 51°13.1 2°50.43 18.353584 4.490194 33.68685 1.039059
2003-09-17 06:42:00 51°13.09 2°50.4 18.411395 4.491777 33.69955 0.97164
2003-09-17 06:42:06 51°13.08 2°50.37 18.444172 4.491777 33.69955 0.97164
2003-09-17 06:42:10 51°13.08 2°50.35 18.514847 4.491566 33.697778 1.039059
2003-09-17 06:42:14 51°13.07 2°50.33 18.514847 4.491566 33.697778 1.039059
2003-09-17 06:42:20 51°13.06 2°50.29 18.47958 4.491566 33.697778 1.005349
2003-09-17 06:42:24 51°13.05 2°50.27 18.377236 4.492199 33.70663 1.005349
2003-09-17 06:42:30 51°13.04 2°50.24 18.439662 4.488928 33.680931 1.005349
2003-09-17 06:42:34 51°13.03 2°50.22 18.375579 4.492621 33.713711 1.005349
2003-09-17 06:42:40 51°13.02 2°50.19 18.410733 4.491038 33.701598 1.005349
2003-09-17 06:42:44 51°13.02 2°50.16 18.410733 4.491038 33.701598 1.005349
2003-09-17 06:42:50 51°13 2°50.13 18.341982 4.491671 33.706915 1.039059
2003-09-17 06:42:54 51°13 2°50.11 18.446117 4.491038 33.702188 1.039059
2003-09-17 06:43:00 51°12.99 2°50.08 18.441855 4.493254 33.723157 1.039059
2003-09-17 06:43:04 51°12.98 2°50.06 18.581857 4.491672 33.712812 1.039059
2003-09-17 06:43:10 51°12.97 2°50.03 18.441524 4.490617 33.703948 1.039059
2003-09-17 06:43:14 51°12.96 2°50.01 18.441524 4.490617 33.703948 1.039059
2003-09-17 06:43:20 51°12.95 2°49.98 18.408911 4.49125 33.711036 1.005349
2003-09-17 06:43:24 51°12.94 2°49.96 18.411395 4.490828 33.7069 1.005349
2003-09-17 06:43:30 51°12.93 2°49.92 18.47437 4.489034 33.693012 1.039059
2003-09-17 06:43:34 51°12.92 2°49.9 18.376366 4.490617 33.706307 1.005349
2003-09-17 06:43:40 51°12.91 2°49.87 18.370319 4.491144 33.711919 1.005349
2003-09-17 06:43:44 51°12.91 2°49.85 18.370319 4.491144 33.711919 1.005349
2003-09-17 06:43:50 51°12.9 2°49.82 18.5072 4.491144 33.711919 1.005349
2003-09-17 06:43:54 51°12.89 2°49.8 18.437634 4.48819 33.686511 1.039059
2003-09-17 06:44:00 51°12.88 2°49.77 18.437469 4.488718 33.692711 1.039059
2003-09-17 06:44:04 51°12.87 2°49.75 18.502446 4.490195 33.70571 1.005349
2003-09-17 06:44:10 51°12.86 2°49.72 18.434903 4.482177 33.638353 1.005349
2003-09-17 06:44:14 51°12.85 2°49.69 18.434903 4.482177 33.638353 1.005349
2003-09-17 06:44:20 51°12.84 2°49.66 18.402743 4.492305 33.723439 1.039059
2003-09-17 06:44:26 51°12.83 2°49.63 18.434531 4.488929 33.695663 1.005349
2003-09-17 06:44:30 51°12.82 2°49.61 18.502611 4.487979 33.686507 1.005349
2003-09-17 06:44:34 51°12.81 2°49.59 18.367917 4.493149 33.729941 1.005349
2003-09-17 06:44:40 51°12.8 2°49.56 18.404647 4.48703 33.679708 1.005349
2003-09-17 06:44:44 51°12.8 2°49.54 18.404647 4.48703 33.679708 1.005349
2003-09-17 06:44:50 51°12.79 2°49.5 18.53832 4.492094 33.723437 0.97164
2003-09-17 06:44:54 51°12.78 2°49.48 18.406262 4.492094 33.725207 0.97164
2003-09-17 06:45:00 51°12.77 2°49.45 18.441069 4.492094 33.725797 1.005349
2003-09-17 06:45:04 51°12.76 2°49.43 18.474742 4.493043 33.734367 1.005349
2003-09-17 06:45:10 51°12.75 2°49.4 18.371644 4.47954 33.61973 0.93793
2003-09-17 06:45:14 51°12.74 2°49.38 18.371644 4.47954 33.61973 0.93793
2003-09-17 06:45:20 51°12.73 2°49.35 18.406634 4.493149 33.733483 0.97164
2003-09-17 06:45:24 51°12.72 2°49.32 18.507241 4.487557 33.685319 0.97164
2003-09-17 06:45:30 51°12.71 2°49.29 18.404854 4.493993 33.737033 0.93793
2003-09-17 06:45:34 51°12.7 2°49.27 18.405848 4.497579 33.763042 0.93793
2003-09-17 06:45:40 51°12.69 2°49.24 18.334896 4.498529 33.771022 0.97164
2003-09-17 06:45:44 51°12.69 2°49.22 18.334896 4.498529 33.771022 0.97164
2003-09-17 06:45:50 51°12.68 2°49.19 18.403033 4.499056 33.776636 0.904221
2003-09-17 06:45:54 51°12.67 2°49.17 18.470937 4.489878 33.699513 0.904221
2003-09-17 06:46:00 51°12.66 2°49.13 18.471599 4.495892 33.750629 0.904221
2003-09-17 06:46:06 51°12.65 2°49.1 18.408166 4.496525 33.75713 0.870512
2003-09-17 06:46:10 51°12.64 2°49.08 18.407628 4.496103 33.755355 0.904221
2003-09-17 06:46:14 51°12.63 2°49.06 18.407628 4.496103 33.755355 0.904221
2003-09-17 06:46:20 51°12.63 2°49.02 18.404482 4.499795 33.78639 0.904221
2003-09-17 06:46:24 51°12.62 2°49 18.445 4.49874 33.780478 0.93793
2003-09-17 06:46:30 51°12.61 2°48.97 18.438379 4.495364 33.750921 0.93793
2003-09-17 06:46:34 51°12.6 2°48.95 18.505546 4.498107 33.773975 0.904221
2003-09-17 06:46:40 51°12.59 2°48.92 18.407338 4.49969 33.786094 0.904221
2003-09-17 06:46:44 51°12.59 2°48.89 18.407338 4.49969 33.786094 0.904221
2003-09-17 06:46:50 51°12.58 2°48.86 18.47255 4.500639 33.794075 0.97164
2003-09-17 06:46:54 51°12.57 2°48.84 18.404399 4.500217 33.791711 0.904221
2003-09-17 06:46:58 51°12.56 2°48.82 18.440572 4.499057 33.782547 0.97164
2003-09-17 06:47:06 51°12.55 2°48.77 18.473708 4.498318 33.778113 0.93793
2003-09-17 06:47:10 51°12.54 2°48.75 18.338377 4.497896 33.772792 0.93793
2003-09-17 06:47:14 51°12.54 2°48.73 18.338377 4.497896 33.772792 0.93793
2003-09-17 06:47:20 51°12.53 2°48.7 18.403654 4.499795 33.790529 0.97164
2003-09-17 06:47:24 51°12.52 2°48.68 18.436972 4.500534 33.796737 0.904221
2003-09-17 06:47:30 51°12.51 2°48.64 18.47135 4.497896 33.774566 0.904221
2003-09-17 06:47:34 51°12.5 2°48.62 18.40266 4.500217 33.794667 0.904221
2003-09-17 06:47:40 51°12.49 2°48.59 18.506414 4.501061 33.80058 0.870512
2003-09-17 06:47:44 51°12.49 2°48.57 18.506414 4.501061 33.80058 0.870512
2003-09-17 06:47:50 51°12.48 2°48.53 18.439124 4.49969 33.789642 0.870512
2003-09-17 06:47:54 51°12.47 2°48.51 18.441234 4.499373 33.788164 0.904221
2003-09-17 06:47:58 51°12.46 2°48.49 18.474742 4.502011 33.810929 0.93793
2003-09-17 06:48:04 51°12.45 2°48.46 18.408994 4.501378 33.805607 0.904221
2003-09-17 06:48:10 51°12.44 2°48.42 18.441896 4.501061 33.804129 0.93793
2003-09-17 06:48:14 51°12.44 2°48.4 18.441896 4.501061 33.804129 0.93793
2003-09-17 06:48:20 51°12.43 2°48.37 18.514475 4.50085 33.801764 0.904221
2003-09-17 06:48:26 51°12.42 2°48.34 18.550054 4.498424 33.781956 0.904221
2003-09-17 06:48:30 51°12.41 2°48.31 18.448765 4.503488 33.822755 0.870512
2003-09-17 06:48:34 51°12.4 2°48.29 18.41748 4.502327 33.811223 0.870512
2003-09-17 06:48:40 51°12.4 2°48.26 18.386222 4.500217 33.792893 0.870512
2003-09-17 06:48:44 51°12.39 2°48.24 18.386222 4.500217 33.792893 0.870512
2003-09-17 06:48:50 51°12.38 2°48.21 18.486321 4.502327 33.810039 0.870512
2003-09-17 06:48:54 51°12.37 2°48.18 18.518319 4.503593 33.818315 0.803093
2003-09-17 06:49:00 51°12.36 2°48.15 18.380922 4.50085 33.794075 0.769383
2003-09-17 06:49:04 51°12.36 2°48.13 18.515384 4.503593 33.815948 0.769383
2003-09-17 06:49:10 51°12.35 2°48.1 18.485494 4.501272 33.795256 0.803093
2003-09-17 06:49:14 51°12.34 2°48.07 18.485494 4.501272 33.795256 0.803093
2003-09-17 06:49:20 51°12.33 2°48.04 18.414168 4.502116 33.80235 0.803093
2003-09-17 06:49:24 51°12.32 2°48.02 18.549971 4.504753 33.823928 0.769383
2003-09-17 06:49:30 51°12.31 2°47.99 18.480697 4.504015 33.818904 0.735674
2003-09-17 06:49:34 51°12.31 2°47.96 18.479332 4.503065 33.812106 0.735674
2003-09-17 06:49:40 51°12.3 2°47.93 18.379224 4.502749 33.809445 0.769383
2003-09-17 06:49:44 51°12.29 2°47.91 18.379224 4.502749 33.809445 0.769383
2003-09-17 06:49:50 51°12.28 2°47.88 18.414417 4.500955 33.79437 0.803093
2003-09-17 06:49:54 51°12.27 2°47.85 18.414251 4.501483 33.799987 0.769383
2003-09-17 06:50:00 51°12.27 2°47.82 18.482641 4.502644 33.809742 0.769383
2003-09-17 06:50:04 51°12.26 2°47.8 18.449054 4.507391 33.849653 0.803093
2003-09-17 06:50:10 51°12.25 2°47.76 18.412595 4.507707 33.851722 0.803093
2003-09-17 06:50:14 51°12.25 2°47.74 18.412595 4.507707 33.851722 0.803093
2003-09-17 06:50:20 51°12.24 2°47.71 18.413589 4.50813 33.855862 0.836802
2003-09-17 06:50:24 51°12.23 2°47.69 18.412678 4.507919 33.855273 0.803093
2003-09-17 06:50:30 51°12.22 2°47.65 18.480366 4.508657 33.860297 0.803093
2003-09-17 06:50:34 51°12.22 2°47.63 18.413216 4.509185 33.864733 0.870512
2003-09-17 06:50:38 51°12.21 2°47.61 18.545922 4.509607 33.868874 0.97164
2003-09-17 06:50:48 51°12.19 2°47.55 18.442434 4.51024 33.874789 0.836802
2003-09-17 06:50:52 51°12.19 2°47.53 18.445744 4.511611 33.885729 0.93793
2003-09-17 06:50:58 51°12.18 2°47.5 18.612036 4.5114 33.883955 0.870512
2003-09-17 06:51:02 51°12.17 2°47.48 18.612036 4.5114 33.883955 0.870512
2003-09-17 06:51:08 51°12.16 2°47.44 18.358431 4.506653 33.844629 0.836802
2003-09-17 06:51:14 51°12.16 2°47.41 18.50968 4.511084 33.882479 0.870512
2003-09-17 06:51:18 51°12.15 2°47.39 18.505877 4.510662 33.880116 0.904221
2003-09-17 06:51:24 51°12.14 2°47.35 18.435234 4.512666 33.897567 0.870512
2003-09-17 06:51:28 51°12.13 2°47.33 18.40208 4.513405 33.903185 0.93793
2003-09-17 06:51:32 51°12.13 2°47.31 18.40208 4.513405 33.903185 0.93793
2003-09-17 06:51:38 51°12.12 2°47.28 18.50319 4.513827 33.908514 0.904221
2003-09-17 06:51:42 51°12.11 2°47.25 18.43689 4.514038 33.909695 0.836802
2003-09-17 06:51:48 51°12.11 2°47.22 18.395373 4.515093 33.921537 0.870512
2003-09-17 06:51:54 51°12.1 2°47.19 18.328307 4.515409 33.923606 0.870512
2003-09-17 06:51:58 51°12.09 2°47.16 18.391688 4.516675 33.936038 0.904221
2003-09-17 06:52:02 51°12.08 2°47.14 18.391688 4.516675 33.936038 0.904221
2003-09-17 06:52:08 51°12.07 2°47.11 18.422985 4.517308 33.94374 0.836802
2003-09-17 06:52:12 51°12.07 2°47.09 18.456294 4.517941 33.94966 0.870512
2003-09-17 06:52:18 51°12.06 2°47.05 18.418473 4.51868 33.956468 0.870512
2003-09-17 06:52:22 51°12.05 2°47.03 18.517699 4.517941 33.952632 0.904221
2003-09-17 06:52:28 51°12.05 2°47 18.414706 4.51868 33.960035 0.904221
2003-09-17 06:52:34 51°12.04 2°46.97 18.414706 4.51868 33.960035 0.904221
2003-09-17 06:52:38 51°12.03 2°46.94 18.47805 4.519418 33.969224 0.836802
2003-09-17 06:52:42 51°12.02 2°46.92 18.446199 4.518891 33.967759 0.904221
2003-09-17 06:52:48 51°12.02 2°46.89 18.439662 4.520051 33.976336 0.93793
2003-09-17 06:52:52 51°12.01 2°46.87 18.50753 4.520052 33.978717 0.836802
2003-09-17 06:52:58 51°12 2°46.83 18.370775 4.514671 33.93462 0.904221
2003-09-17 06:53:02 51°11.99 2°46.81 18.370775 4.514671 33.93462 0.904221
2003-09-17 06:53:08 51°11.99 2°46.78 18.571657 4.519946 33.981995 0.904221
2003-09-17 06:53:14 51°11.98 2°46.74 18.469241 4.519524 33.980228 0.870512
2003-09-17 06:53:18 51°11.97 2°46.72 18.405227 4.520474 33.990008 0.870512
2003-09-17 06:53:22 51°11.96 2°46.7 18.401791 4.519524 33.982609 0.904221
2003-09-17 06:53:28 51°11.96 2°46.67 18.436434 4.520157 33.990916 0.870512
2003-09-17 06:53:34 51°11.95 2°46.63 18.436434 4.520157 33.990916 0.870512
2003-09-17 06:53:38 51°11.94 2°46.61 18.370775 4.519208 33.984112 0.870512
2003-09-17 06:53:42 51°11.93 2°46.59 18.440407 4.51963 33.990047 0.904221
2003-09-17 06:53:48 51°11.93 2°46.56 18.373053 4.520474 33.997751 0.904221
2003-09-17 06:53:52 51°11.92 2°46.54 18.409201 4.519208 33.985303 0.870512
2003-09-17 06:53:58 51°11.91 2°46.5 18.512987 4.520579 33.998043 0.904221
2003-09-17 06:54:02 51°11.9 2°46.48 18.512987 4.520579 33.998043 0.904221
2003-09-17 06:54:08 51°11.9 2°46.45 18.410567 4.521318 34.004859 0.836802
2003-09-17 06:54:14 51°11.89 2°46.41 18.376739 4.52174 34.006625 0.904221
2003-09-17 06:54:18 51°11.88 2°46.39 18.374999 4.522689 34.012833 0.904221
2003-09-17 06:54:22 51°11.88 2°46.37 18.445537 4.51752 33.969303 0.836802
2003-09-17 06:54:28 51°11.87 2°46.34 18.345877 4.523955 34.022303 0.904221
2003-09-17 06:54:32 51°11.86 2°46.31 18.345877 4.523955 34.022303 0.904221
2003-09-17 06:54:38 51°11.85 2°46.28 18.347286 4.526909 34.045988 0.93793
2003-09-17 06:54:42 51°11.85 2°46.26 18.417645 4.523955 34.021707 0.904221
2003-09-17 06:54:48 51°11.84 2°46.23 18.353294 4.525116 34.030884 0.93793
2003-09-17 06:54:54 51°11.83 2°46.19 18.387175 4.527015 34.046877 0.904221
2003-09-17 06:54:58 51°11.82 2°46.17 18.45588 4.525327 34.031468 0.904221
2003-09-17 06:55:02 51°11.82 2°46.15 18.45588 4.525327 34.031468 0.904221
2003-09-17 06:55:08 51°11.81 2°46.11 18.455591 4.527331 34.04656 0.93793
2003-09-17 06:55:14 51°11.8 2°46.08 18.420708 4.522478 34.004503 0.904221
2003-09-17 06:55:18 51°11.79 2°46.06 18.352879 4.527015 34.043298 0.870512
2003-09-17 06:55:22 51°11.79 2°46.04 18.420708 4.522689 34.004492 0.870512
2003-09-17 06:55:28 51°11.78 2°46 18.355199 4.527015 34.03972 0.870512
2003-09-17 06:55:34 51°11.77 2°45.97 18.355199 4.527015 34.03972 0.870512
2003-09-17 06:55:38 51°11.76 2°45.95 18.525221 4.530391 34.067553 0.904221
2003-09-17 06:55:42 51°11.76 2°45.93 18.354619 4.526698 34.035267 0.836802
2003-09-17 06:55:48 51°11.75 2°45.89 18.524187 4.531868 34.078201 0.836802
2003-09-17 06:55:54 51°11.74 2°45.86 18.358555 4.529125 34.056892 0.870512
2003-09-17 06:55:58 51°11.73 2°45.84 18.560836 4.531446 34.076438 0.904221
2003-09-17 06:56:02 51°11.72 2°45.82 18.560836 4.531446 34.076438 0.904221
2003-09-17 06:56:08 51°11.72 2°45.78 18.426337 4.532606 34.085017 0.870512
2003-09-17 06:56:14 51°11.71 2°45.75 18.39351 4.529758 34.060432 0.870512
2003-09-17 06:56:18 51°11.7 2°45.73 18.392268 4.532817 34.086197 0.904221
2003-09-17 06:56:22 51°11.7 2°45.7 18.428737 4.531762 34.077312 0.904221
2003-09-17 06:56:28 51°11.69 2°45.67 18.360958 4.533661 34.092111 0.904221
2003-09-17 06:56:34 51°11.68 2°45.64 18.360958 4.533661 34.092111 0.904221
2003-09-17 06:56:38 51°11.67 2°45.61 18.495913 4.535138 34.103953 0.836802
2003-09-17 06:56:42 51°11.66 2°45.59 18.396657 4.526276 34.027542 0.870512
2003-09-17 06:56:48 51°11.66 2°45.56 18.358804 4.532501 34.080547 0.870512
2003-09-17 06:56:54 51°11.65 2°45.53 18.428986 4.533978 34.091791 0.836802
2003-09-17 06:56:58 51°11.64 2°45.5 18.390363 4.5344 34.095345 0.870512
2003-09-17 06:57:02 51°11.63 2°45.48 18.390363 4.5344 34.095345 0.870512
2003-09-17 06:57:08 51°11.63 2°45.45 18.388665 4.536615 34.11221 0.904221
2003-09-17 06:57:14 51°11.62 2°45.42 18.385228 4.531024 34.065724 0.904221
2003-09-17 06:57:18 51°11.61 2°45.39 18.384773 4.536299 34.11074 0.870512
2003-09-17 06:57:22 51°11.6 2°45.37 18.553276 4.534822 34.098898 0.870512
2003-09-17 06:57:28 51°11.6 2°45.34 18.517864 4.537354 34.120222 0.836802
2003-09-17 06:57:34 51°11.59 2°45.3 18.517864 4.537354 34.120222 0.836802
2003-09-17 06:57:38 51°11.58 2°45.28 18.381916 4.536826 34.118767 0.904221
2003-09-17 06:57:42 51°11.57 2°45.26 18.378768 4.537037 34.122337 0.904221
2003-09-17 06:57:48 51°11.57 2°45.23 18.447192 4.537248 34.123517 0.870512
2003-09-17 06:57:54 51°11.56 2°45.19 18.444544 4.537776 34.129156 0.870512
2003-09-17 06:57:58 51°11.55 2°45.17 18.340988 4.53746 34.128881 0.904221
2003-09-17 06:58:02 51°11.54 2°45.15 18.340988 4.53746 34.128881 0.904221
2003-09-17 06:58:08 51°11.53 2°45.12 18.339703 4.537776 34.131547 0.870512
2003-09-17 06:58:14 51°11.53 2°45.08 18.37152 4.538093 34.135409 0.870512
2003-09-17 06:58:18 51°11.52 2°45.06 18.372804 4.537249 34.130691 0.870512
2003-09-17 06:58:22 51°11.51 2°45.04 18.337922 4.537882 34.136622 0.870512
2003-09-17 06:58:28 51°11.5 2°45 18.370029 4.538093 34.139596 0.93793
2003-09-17 06:58:32 51°11.5 2°44.98 18.370029 4.538093 34.139596 0.93793
2003-09-17 06:58:38 51°11.49 2°44.95 18.370568 4.537249 34.133083 0.870512
2003-09-17 06:58:42 51°11.48 2°44.92 18.504182 4.537776 34.139322 0.870512
2003-09-17 06:58:48 51°11.48 2°44.89 18.367295 4.529758 34.074756 0.836802
2003-09-17 06:58:54 51°11.47 2°44.86 18.368455 4.538726 34.147323 0.836802
2003-09-17 06:58:58 51°11.46 2°44.84 18.367792 4.538831 34.150007 0.870512
2003-09-17 06:59:02 51°11.45 2°44.81 18.367792 4.538831 34.150007 0.870512
2003-09-17 06:59:08 51°11.44 2°44.78 18.402287 4.538198 34.146468 0.904221
2003-09-17 06:59:14 51°11.44 2°44.75 18.435607 4.538937 34.151494 0.870512
2003-09-17 06:59:18 51°11.43 2°44.72 18.431469 4.538093 34.145579 0.870512
2003-09-17 06:59:22 51°11.42 2°44.7 18.426668 4.538304 34.148554 0.836802
2003-09-17 06:59:28 51°11.41 2°44.67 18.391316 4.529125 34.071215 0.836802
2003-09-17 06:59:34 51°11.41 2°44.64 18.391316 4.529125 34.071215 0.836802
2003-09-17 06:59:38 51°11.4 2°44.61 18.388583 4.533978 34.112103 0.870512
2003-09-17 06:59:42 51°11.39 2°44.59 18.387796 4.533767 34.111521 0.870512
2003-09-17 06:59:48 51°11.38 2°44.56 18.454226 4.538304 34.148554 0.836802
2003-09-17 06:59:54 51°11.38 2°44.52 18.420129 4.536616 34.136721 0.870512
2003-09-17 06:59:58 51°11.37 2°44.5 18.417397 4.537249 34.14445 0.836802
2003-09-17 07:00:02 51°11.36 2°44.48 18.417397 4.537249 34.14445 0.836802
2003-09-17 07:00:08 51°11.35 2°44.45 18.351098 4.537987 34.154267 0.93793
2003-09-17 07:00:12 51°11.35 2°44.42 18.318235 4.537354 34.150727 0.870512
2003-09-17 07:00:18 51°11.34 2°44.39 18.449716 4.537776 34.154284 0.870512
2003-09-17 07:00:22 51°11.33 2°44.37 18.487065 4.531024 34.099166 0.870512
2003-09-17 07:00:28 51°11.33 2°44.33 18.488926 4.537354 34.152523 0.803093
2003-09-17 07:00:34 51°11.32 2°44.3 18.488926 4.537354 34.152523 0.803093
2003-09-17 07:00:38 51°11.31 2°44.28 18.351678 4.537671 34.157587 0.870512
2003-09-17 07:00:42 51°11.3 2°44.26 18.314795 4.537355 34.156116 0.803093
2003-09-17 07:00:48 51°11.29 2°44.22 18.415617 4.536933 34.153157 0.870512
2003-09-17 07:00:52 51°11.29 2°44.2 18.382454 4.537249 34.156424 0.836802
2003-09-17 07:00:58 51°11.28 2°44.17 18.413051 4.538621 34.165592 0.769383
2003-09-17 07:01:02 51°11.27 2°44.14 18.413051 4.538621 34.165592 0.769383
2003-09-17 07:01:08 51°11.26 2°44.11 18.27586 4.538621 34.165592 0.836802
2003-09-17 07:01:12 51°11.26 2°44.09 18.376366 4.538832 34.167371 0.769383
2003-09-17 07:01:18 51°11.25 2°44.05 18.375413 4.538515 34.1665 0.836802
2003-09-17 07:01:22 51°11.24 2°44.03 18.477802 4.539043 34.170948 0.836802
2003-09-17 07:01:28 51°11.24 2°44 18.339123 4.538832 34.169169 0.803093
2003-09-17 07:01:32 51°11.23 2°43.98 18.339123 4.538832 34.169169 0.803093
2003-09-17 07:01:38 51°11.22 2°43.94 18.303975 4.538832 34.170966 0.870512
2003-09-17 07:01:42 51°11.21 2°43.92 18.439869 4.538832 34.172165 0.870512
2003-09-17 07:01:48 51°11.2 2°43.89 18.374875 4.53957 34.177793 0.836802
2003-09-17 07:01:54 51°11.2 2°43.85 18.335808 4.539254 34.177521 0.870512
2003-09-17 07:01:58 51°11.19 2°43.83 18.371852 4.538832 34.175761 0.870512
2003-09-17 07:02:02 51°11.18 2°43.81 18.371852 4.538832 34.175761 0.870512
2003-09-17 07:02:08 51°11.17 2°43.78 18.406303 4.539465 34.182298 0.836802
2003-09-17 07:02:14 51°11.17 2°43.74 18.335725 4.53957 34.183788 0.836802
2003-09-17 07:02:18 51°11.16 2°43.72 18.33357 4.539148 34.179629 0.836802
2003-09-17 07:02:22 51°11.15 2°43.7 18.298336 4.539676 34.184078 0.904221
2003-09-17 07:02:28 51°11.14 2°43.66 18.331208 4.539676 34.185277 0.870512
2003-09-17 07:02:32 51°11.14 2°43.64 18.331208 4.539676 34.185277 0.870512
2003-09-17 07:02:38 51°11.13 2°43.61 18.365307 4.539887 34.185858 0.870512
2003-09-17 07:02:42 51°11.12 2°43.59 18.567816 4.539887 34.188256 0.904221
2003-09-17 07:02:48 51°11.12 2°43.55 18.260969 4.53957 34.186786 0.97164
2003-09-17 07:02:54 51°11.11 2°43.52 18.531626 4.539676 34.187676 0.803093
2003-09-17 07:02:58 51°11.1 2°43.5 18.36104 4.540098 34.193635 0.870512
2003-09-17 07:03:02 51°11.09 2°43.47 18.36104 4.540098 34.193635 0.870512
2003-09-17 07:03:08 51°11.09 2°43.44 18.393262 4.540414 34.195705 0.870512
2003-09-17 07:03:12 51°11.08 2°43.42 18.461548 4.539465 34.188295 0.870512
2003-09-17 07:03:18 51°11.07 2°43.38 18.394255 4.540098 34.194835 0.870512
2003-09-17 07:03:22 51°11.06 2°43.36 18.461423 4.54052 34.197795 0.870512
2003-09-17 07:03:28 51°11.05 2°43.33 18.393966 4.540309 34.197815 0.870512
2003-09-17 07:03:34 51°11.04 2°43.3 18.393966 4.540309 34.197815 0.870512
2003-09-17 07:03:38 51°11.04 2°43.27 18.32437 4.53957 34.193385 0.870512
2003-09-17 07:03:42 51°11.03 2°43.25 18.390405 4.53957 34.193385 0.870512
2003-09-17 07:03:48 51°11.02 2°43.22 18.289629 4.540203 34.199325 0.836802
2003-09-17 07:03:52 51°11.01 2°43.2 18.422447 4.539887 34.196055 0.904221
2003-09-17 07:03:58 51°11 2°43.16 18.390239 4.539043 34.189534 0.870512
2003-09-17 07:04:02 51°11 2°43.14 18.390239 4.539043 34.189534 0.870512
2003-09-17 07:04:08 51°10.99 2°43.11 18.32267 4.539676 34.195475 0.870512
2003-09-17 07:04:14 51°10.98 2°43.08 18.322588 4.53957 34.195785 0.904221
2003-09-17 07:04:18 51°10.97 2°43.05 18.323665 4.539887 34.198455 0.904221
2003-09-17 07:04:22 51°10.96 2°43.03 18.321551 4.539676 34.197275 0.870512
2003-09-17 07:04:28 51°10.95 2°43 18.287887 4.539043 34.193734 0.904221
2003-09-17 07:04:34 51°10.94 2°42.97 18.287887 4.539043 34.193734 0.904221
2003-09-17 07:04:38 51°10.94 2°42.94 18.32238 4.539571 34.196985 0.870512
2003-09-17 07:04:42 51°10.93 2°42.92 18.285772 4.539571 34.197585 0.904221
2003-09-17 07:04:48 51°10.92 2°42.89 18.490911 4.539465 34.196695 0.904221
2003-09-17 07:04:54 51°10.91 2°42.86 18.320639 4.539571 34.197585 0.904221
2003-09-17 07:04:58 51°10.9 2°42.83 18.318608 4.539782 34.198165 0.904221
2003-09-17 07:05:02 51°10.9 2°42.81 18.318608 4.539782 34.198165 0.904221
2003-09-17 07:05:08 51°10.89 2°42.78 18.252256 4.53936 34.196405 0.93793
2003-09-17 07:05:14 51°10.88 2°42.75 18.250223 4.539254 34.195515 0.870512
2003-09-17 07:05:18 51°10.87 2°42.73 18.386802 4.539571 34.198785 0.870512
2003-09-17 07:05:22 51°10.86 2°42.7 18.351761 4.53936 34.198205 0.836802
2003-09-17 07:05:28 51°10.85 2°42.67 18.283076 4.539571 34.199986 0.904221
2003-09-17 07:05:34 51°10.84 2°42.64 18.283076 4.539571 34.199986 0.904221
2003-09-17 07:05:38 51°10.84 2°42.62 18.352879 4.539571 34.199986 0.904221
2003-09-17 07:05:42 51°10.83 2°42.59 18.385228 4.539571 34.200586 0.93793
2003-09-17 07:05:48 51°10.82 2°42.56 18.350766 4.539782 34.202967 0.93793
2003-09-17 07:05:54 51°10.81 2°42.53 18.485122 4.539043 34.196735 0.904221
2003-09-17 07:05:58 51°10.8 2°42.51 18.317697 4.539571 34.201186 0.836802
2003-09-17 07:06:02 51°10.8 2°42.48 18.317697 4.539571 34.201186 0.836802
2003-09-17 07:06:08 51°10.79 2°42.45 18.283076 4.53936 34.199406 0.904221
2003-09-17 07:06:14 51°10.78 2°42.42 18.319976 4.539993 34.204747 0.904221
2003-09-17 07:06:18 51°10.77 2°42.4 18.456418 4.539571 34.201787 0.93793
2003-09-17 07:06:22 51°10.76 2°42.37 18.352175 4.539043 34.198536 0.93793
2003-09-17 07:06:28 51°10.75 2°42.34 18.317779 4.539887 34.204457 0.904221
2003-09-17 07:06:32 51°10.75 2°42.32 18.317779 4.539887 34.204457 0.904221
2003-09-17 07:06:38 51°10.74 2°42.28 18.318152 4.540204 34.205928 0.93793
2003-09-17 07:06:42 51°10.73 2°42.26 18.31836 4.539782 34.203567 0.904221
2003-09-17 07:06:48 51°10.72 2°42.23 18.28233 4.53936 34.199406 0.904221
2003-09-17 07:06:52 51°10.71 2°42.21 18.454308 4.539782 34.201766 0.904221
2003-09-17 07:06:58 51°10.7 2°42.17 18.351512 4.539254 34.197915 0.904221
2003-09-17 07:07:02 51°10.69 2°42.15 18.351512 4.539254 34.197915 0.904221
2003-09-17 07:07:08 51°10.68 2°42.12 18.420998 4.540098 34.205638 0.93793
2003-09-17 07:07:12 51°10.68 2°42.1 18.385518 4.539571 34.200586 0.904221
2003-09-17 07:07:18 51°10.67 2°42.06 18.489629 4.539887 34.205058 0.93793
2003-09-17 07:07:22 51°10.66 2°42.04 18.319272 4.539887 34.205658 0.93793
2003-09-17 07:07:28 51°10.65 2°42.01 18.424723 4.539676 34.202677 0.904221
2003-09-17 07:07:34 51°10.64 2°41.97 18.424723 4.539676 34.202677 0.904221
2003-09-17 07:07:38 51°10.64 2°41.95 18.255078 4.539887 34.203257 0.97164
2003-09-17 07:07:42 51°10.63 2°41.93 18.391771 4.540204 34.205928 0.904221
2003-09-17 07:07:48 51°10.62 2°41.9 18.326857 4.540204 34.206528 0.93793
2003-09-17 07:07:54 51°10.61 2°41.86 18.261632 4.540415 34.208309 0.97164
2003-09-17 07:07:58 51°10.6 2°41.84 18.295641 4.540098 34.203236 0.93793
2003-09-17 07:08:02 51°10.6 2°41.82 18.295641 4.540098 34.203236 0.93793
2003-09-17 07:08:08 51°10.59 2°41.79 18.332369 4.539887 34.200856 0.93793
2003-09-17 07:08:14 51°10.58 2°41.75 18.301114 4.540204 34.203526 0.93793
2003-09-17 07:08:18 51°10.57 2°41.73 18.503851 4.540204 34.202326 0.93793
2003-09-17 07:08:22 51°10.56 2°41.71 18.300202 4.539887 34.197855 0.97164
2003-09-17 07:08:28 51°10.55 2°41.68 18.369449 4.540625 34.202285 0.97164
2003-09-17 07:08:34 51°10.54 2°41.64 18.369449 4.540625 34.202285 0.97164
2003-09-17 07:08:38 51°10.54 2°41.62 18.334316 4.538093 34.180324 0.97164
2003-09-17 07:08:42 51°10.53 2°41.6 18.404026 4.538093 34.177925 1.005349
2003-09-17 07:08:48 51°10.52 2°41.57 18.436559 4.537882 34.176146 0.93793
2003-09-17 07:08:54 51°10.51 2°41.53 18.471971 4.538726 34.182066 1.005349
2003-09-17 07:08:58 51°10.5 2°41.51 18.407711 4.54052 34.197795 0.93793
2003-09-17 07:09:02 51°10.5 2°41.49 18.407711 4.54052 34.197795 0.93793
2003-09-17 07:09:08 51°10.49 2°41.46 18.409449 4.536827 34.16425 0.97164
2003-09-17 07:09:14 51°10.48 2°41.42 18.378892 4.538621 34.181176 1.005349
2003-09-17 07:09:18 51°10.47 2°41.4 18.382909 4.537882 34.173747 1.039059
2003-09-17 07:09:22 51°10.46 2°41.38 18.354744 4.535983 34.15833 1.072768
2003-09-17 07:09:28 51°10.46 2°41.35 18.322049 4.534506 34.143477 1.140187
2003-09-17 07:09:34 51°10.45 2°41.31 18.322049 4.534506 34.143477 1.140187
2003-09-17 07:09:38 51°10.44 2°41.29 18.291412 4.532607 34.126864 1.140187
2003-09-17 07:09:42 51°10.43 2°41.27 18.397278 4.532502 34.125376 1.207606
2003-09-17 07:09:48 51°10.42 2°41.24 18.401252 4.530075 34.101925 1.275024
2003-09-17 07:09:54 51°10.41 2°41.2 18.337383 4.528492 34.085595 1.275024
2003-09-17 07:09:58 51°10.41 2°41.18 18.509184 4.529125 34.08854 1.308734
2003-09-17 07:10:02 51°10.4 2°41.16 18.509184 4.529125 34.08854 1.308734
2003-09-17 07:10:08 51°10.39 2°41.13 18.379141 4.528281 34.077841 1.376153
2003-09-17 07:10:14 51°10.38 2°41.09 18.448847 4.526804 34.063602 1.409862
2003-09-17 07:10:18 51°10.37 2°41.07 18.312888 4.525327 34.049365 1.409862
2003-09-17 07:10:22 51°10.37 2°41.05 18.620208 4.526065 34.049618 1.409862
2003-09-17 07:10:28 51°10.36 2°41.02 18.385684 4.527859 34.062937 1.376153
2003-09-17 07:10:34 51°10.35 2°40.98 18.385684 4.527859 34.062937 1.376153
2003-09-17 07:10:38 51°10.34 2°40.96 18.456873 4.525854 34.043664 1.409862
2003-09-17 07:10:42 51°10.34 2°40.94 18.493391 4.525749 34.039196 1.409862
2003-09-17 07:10:48 51°10.33 2°40.91 18.459603 4.526276 34.043043 1.477281
2003-09-17 07:10:54 51°10.32 2°40.87 18.564801 4.527226 34.047461 1.443571
2003-09-17 07:10:58 51°10.31 2°40.85 18.364354 4.526487 34.041241 1.477281
2003-09-17 07:11:02 51°10.3 2°40.83 18.364354 4.526487 34.041241 1.477281
2003-09-17 07:11:08 51°10.29 2°40.8 18.4342 4.526909 34.041813 1.477281
2003-09-17 07:11:12 51°10.29 2°40.77 18.436269 4.526698 34.038844 1.443571
2003-09-17 07:11:18 51°10.28 2°40.74 18.469531 4.526804 34.036751 1.477281
2003-09-17 07:11:22 51°10.27 2°40.72 18.402205 4.52712 34.037628 1.409862
2003-09-17 07:11:28 51°10.26 2°40.69 18.471268 4.527331 34.038212 1.443571
2003-09-17 07:11:32 51°10.25 2°40.66 18.471268 4.527331 34.038212 1.443571
2003-09-17 07:11:38 51°10.24 2°40.63 18.439496 4.527648 34.039088 1.443571
2003-09-17 07:11:42 51°10.24 2°40.61 18.542824 4.527542 34.03522 1.477281
2003-09-17 07:11:48 51°10.23 2°40.57 18.374005 4.527859 34.037289 1.477281
2003-09-17 07:11:52 51°10.22 2°40.55 18.478216 4.527542 34.034028 1.409862
2003-09-17 07:11:58 51°10.21 2°40.52 18.512987 4.527015 34.028992 1.477281
2003-09-17 07:12:02 51°10.2 2°40.5 18.512987 4.527015 34.028992 1.477281
2003-09-17 07:12:08 51°10.19 2°40.46 18.446779 4.52923 34.04645 1.443571
2003-09-17 07:12:14 51°10.18 2°40.43 18.483674 4.527964 34.034005 1.443571
2003-09-17 07:12:18 51°10.18 2°40.41 18.383779 4.528386 34.036366 1.477281
2003-09-17 07:12:22 51°10.17 2°40.38 18.418473 4.529441 34.044054 1.443571
2003-09-17 07:12:28 51°10.16 2°40.35 18.352631 4.529863 34.045818 1.443571
2003-09-17 07:12:34 51°10.15 2°40.32 18.352631 4.529863 34.045818 1.443571
2003-09-17 07:12:38 51°10.14 2°40.3 18.456046 4.527858 34.028351 1.477281
2003-09-17 07:12:42 51°10.14 2°40.27 18.422819 4.52923 34.03632 1.443571
2003-09-17 07:12:48 51°10.13 2°40.24 18.493722 4.528702 34.031285 1.477281
2003-09-17 07:12:54 51°10.11 2°40.21 18.390487 4.528491 34.030105 1.376153
2003-09-17 07:12:58 51°10.11 2°40.19 18.391523 4.529019 34.032757 1.376153
2003-09-17 07:13:02 51°10.1 2°40.17 18.391523 4.529019 34.032757 1.376153
2003-09-17 07:13:08 51°10.09 2°40.14 18.459645 4.52923 34.032746 1.409862
2003-09-17 07:13:14 51°10.07 2°40.11 18.460637 4.533239 34.065886 1.376153
2003-09-17 07:13:18 51°10.06 2°40.08 18.528237 4.529335 34.033038 1.376153
2003-09-17 07:13:22 51°10.06 2°40.06 18.393883 4.531023 34.044859 1.409862
2003-09-17 07:13:28 51°10.04 2°40.03 18.499304 4.530601 34.040117 1.409862
2003-09-17 07:13:32 51°10.03 2°40.01 18.499304 4.530601 34.040117 1.409862
2003-09-17 07:13:38 51°10.02 2°39.98 18.603781 4.530812 34.041892 1.342443
2003-09-17 07:13:42 51°10.01 2°39.96 18.435027 4.531129 34.045151 1.376153
2003-09-17 07:13:48 51°10 2°39.93 18.469489 4.531762 34.049881 1.342443
2003-09-17 07:13:54 51°9.99 2°39.9 18.434614 4.531656 34.046015 1.443571
2003-09-17 07:13:58 51°9.98 2°39.88 18.420998 4.532184 34.050453 1.443571
2003-09-17 07:14:02 51°9.97 2°39.85 18.420998 4.532184 34.050453 1.443571
2003-09-17 07:14:08 51°9.96 2°39.82 18.437634 4.532817 34.053396 1.477281
2003-09-17 07:14:14 51°9.95 2°39.79 18.509184 4.533133 34.054868 1.51099
2003-09-17 07:14:18 51°9.94 2°39.77 18.447316 4.535138 34.069944 1.477281
2003-09-17 07:14:22 51°9.93 2°39.75 18.556168 4.53345 34.055743 1.51099
2003-09-17 07:14:28 51°9.92 2°39.72 18.459355 4.535349 34.072912 1.477281
2003-09-17 07:14:34 51°9.91 2°39.68 18.459355 4.535349 34.072912 1.477281
2003-09-17 07:14:38 51°9.9 2°39.66 18.566288 4.536404 34.079404 1.443571
2003-09-17 07:14:42 51°9.89 2°39.64 18.502115 4.537037 34.082941 1.578409
2003-09-17 07:14:48 51°9.88 2°39.61 18.605184 4.538197 34.09032 1.612118
2003-09-17 07:14:52 51°9.87 2°39.59 18.607909 4.538936 34.093552 1.645828
2003-09-17 07:14:58 51°9.86 2°39.56 18.546749 4.53978 34.095882 1.679537
2003-09-17 07:15:02 51°9.85 2°39.53 18.546749 4.53978 34.095882 1.679537
2003-09-17 07:15:08 51°9.84 2°39.5 18.652557 4.54189 34.110053 1.746956
2003-09-17 07:15:14 51°9.83 2°39.47 18.554557 4.543472 34.120381 1.814375
2003-09-17 07:15:18 51°9.82 2°39.45 18.48723 4.542734 34.109996 1.982922
2003-09-17 07:15:22 51°9.81 2°39.43 18.520716 4.544949 34.126243 2.117759
2003-09-17 07:15:28 51°9.8 2°39.39 18.621612 4.546532 34.137166 2.218888
2003-09-17 07:15:32 51°9.79 2°39.37 18.621612 4.546532 34.137166 2.218888
2003-09-17 07:15:38 51°9.78 2°39.34 18.487313 4.544949 34.118491 2.286306
2003-09-17 07:15:42 51°9.78 2°39.32 18.48996 4.550119 34.159574 2.353725
2003-09-17 07:15:48 51°9.76 2°39.29 18.492647 4.551068 34.164574 2.353725
2003-09-17 07:15:52 51°9.76 2°39.27 18.426337 4.552229 34.172541 2.421144
2003-09-17 07:15:58 51°9.75 2°39.23 18.629246 4.553917 34.186138 2.421144
2003-09-17 07:16:02 51°9.74 2°39.21 18.629246 4.553917 34.186138 2.421144
2003-09-17 07:16:08 51°9.73 2°39.18 18.491365 4.553389 34.181703 2.454853
2003-09-17 07:16:14 51°9.71 2°39.15 18.425219 4.554128 34.187315 2.488563
2003-09-17 07:16:18 51°9.71 2°39.13 18.528113 4.554444 34.188782 2.522272
2003-09-17 07:16:22 51°9.7 2°39.1 18.493391 4.555394 34.194975 2.488563
2003-09-17 07:16:28 51°9.69 2°39.07 18.461175 4.555921 34.198216 2.488563
2003-09-17 07:16:32 51°9.68 2°39.05 18.461175 4.555921 34.198216 2.488563
2003-09-17 07:16:38 51°9.67 2°39.02 18.529766 4.555288 34.192296 2.555982
2003-09-17 07:16:42 51°9.66 2°39 18.462954 4.556449 34.200262 2.522272
2003-09-17 07:16:48 51°9.65 2°38.96 18.665674 4.556976 34.205892 2.555982
2003-09-17 07:16:54 51°9.64 2°38.93 18.531254 4.556765 34.204715 2.522272
2003-09-17 07:16:58 51°9.63 2°38.91 18.464857 4.557504 34.207938 2.555982
2003-09-17 07:17:02 51°9.62 2°38.89 18.464857 4.557504 34.207938 2.555982
2003-09-17 07:17:08 51°9.61 2°38.86 18.467256 4.55782 34.211794 2.555982
2003-09-17 07:17:14 51°9.6 2°38.82 18.505877 4.559298 34.221823 2.589691
2003-09-17 07:17:18 51°9.59 2°38.8 18.510259 4.560247 34.231003 2.589691
2003-09-17 07:17:22 51°9.58 2°38.78 18.616576 4.561513 34.241051 2.589691
2003-09-17 07:17:28 51°9.57 2°38.75 18.48446 4.562674 34.250212 2.589691
2003-09-17 07:17:34 51°9.56 2°38.71 18.48446 4.562674 34.250212 2.589691
2003-09-17 07:17:38 51°9.55 2°38.69 18.522245 4.564889 34.267647 2.589691
2003-09-17 07:17:42 51°9.55 2°38.67 18.525179 4.56721 34.285371 2.6234
2003-09-17 07:17:48 51°9.53 2°38.64 18.662292 4.570481 34.311081 2.589691
2003-09-17 07:17:54 51°9.52 2°38.6 18.597423 4.573224 34.329358 2.589691
2003-09-17 07:17:58 51°9.51 2°38.58 18.666623 4.575123 34.342332 2.555982
2003-09-17 07:18:02 51°9.51 2°38.56 18.666623 4.575123 34.342332 2.555982
2003-09-17 07:18:08 51°9.49 2°38.53 18.634487 4.577445 34.358255 2.555982
2003-09-17 07:18:12 51°9.49 2°38.51 18.534023 4.5785 34.365329 2.555982
2003-09-17 07:18:18 51°9.47 2°38.47 18.602955 4.579871 34.374464 2.589691
2003-09-17 07:18:22 51°9.47 2°38.45 18.6044 4.58177 34.387434 2.555982
2003-09-17 07:18:28 51°9.46 2°38.42 18.469034 4.582087 34.389496 2.555982
2003-09-17 07:18:34 51°9.44 2°38.39 18.469034 4.582087 34.389496 2.555982
2003-09-17 07:18:38 51°9.44 2°38.37 18.470523 4.583142 34.395968 2.589691
2003-09-17 07:18:44 51°9.42 2°38.33 18.67483 4.58388 34.401578 2.589691
2003-09-17 07:18:48 51°9.42 2°38.31 18.57525 4.584408 34.404213 2.589691
2003-09-17 07:18:54 51°9.41 2°38.28 18.574713 4.585041 34.407735 2.6234
2003-09-17 07:18:58 51°9.4 2°38.26 18.608156 4.585463 34.410684 2.6234
2003-09-17 07:19:02 51°9.39 2°38.24 18.608156 4.585463 34.410684 2.6234
2003-09-17 07:19:08 51°9.38 2°38.2 18.607909 4.586096 34.414205 2.65711
2003-09-17 07:19:14 51°9.37 2°38.17 18.608652 4.58599 34.412718 2.65711
2003-09-17 07:19:18 51°9.36 2°38.15 18.641295 4.586096 34.412404 2.65711
2003-09-17 07:19:22 51°9.35 2°38.13 18.640676 4.586729 34.415926 2.65711
2003-09-17 07:19:28 51°9.34 2°38.09 18.53894 4.585885 34.41003 2.65711
2003-09-17 07:19:34 51°9.33 2°38.06 18.53894 4.585885 34.41003 2.65711
2003-09-17 07:19:38 51°9.32 2°38.04 18.473294 4.585885 34.40943 2.65711
2003-09-17 07:19:42 51°9.31 2°38.02 18.573433 4.586518 34.414752 2.690819
2003-09-17 07:19:48 51°9.3 2°37.99 18.505753 4.586518 34.414752 2.690819
2003-09-17 07:19:54 51°9.29 2°37.95 18.673386 4.587046 34.418587 2.724529
2003-09-17 07:19:58 51°9.28 2°37.93 18.740533 4.586201 34.413892 2.690819
2003-09-17 07:20:02 51°9.27 2°37.91 18.740533 4.586201 34.413892 2.690819
2003-09-17 07:20:08 51°9.26 2°37.88 18.569055 4.586729 34.415926 2.690819
2003-09-17 07:20:14 51°9.25 2°37.84 18.569303 4.586518 34.414752 2.690819
2003-09-17 07:20:18 51°9.24 2°37.82 18.669963 4.586729 34.417127 2.724529
2003-09-17 07:20:22 51°9.24 2°37.8 18.49827 4.586835 34.418614 2.724529
2003-09-17 07:20:28 51°9.22 2°37.77 18.633084 4.586518 34.415953 2.690819
2003-09-17 07:20:32 51°9.22 2°37.75 18.633084 4.586518 34.415953 2.690819
2003-09-17 07:20:38 51°9.2 2°37.71 18.631639 4.586096 34.413005 2.758238
2003-09-17 07:20:42 51°9.2 2°37.69 18.530138 4.586307 34.41598 2.825657
2003-09-17 07:20:48 51°9.19 2°37.66 18.527039 4.585885 34.412431 2.791947
2003-09-17 07:20:54 51°9.18 2°37.63 18.557738 4.586307 34.41658 2.758238
2003-09-17 07:20:58 51°9.17 2°37.61 18.553524 4.586307 34.41658 2.791947
2003-09-17 07:21:02 51°9.16 2°37.59 18.553524 4.586307 34.41658 2.791947
2003-09-17 07:21:08 51°9.16 2°37.56 18.560464 4.586202 34.418095 2.724529
2003-09-17 07:21:14 51°9.15 2°37.54 18.487313 4.585252 34.411311 2.758238
2003-09-17 07:21:18 51°9.15 2°37.52 18.517203 4.585463 34.413085 2.758238
2003-09-17 07:21:22 51°9.14 2°37.51 18.507324 4.584619 34.408389 2.859366
2003-09-17 07:21:28 51°9.14 2°37.49 18.512656 4.585041 34.412539 2.791947
2003-09-17 07:21:34 51°9.14 2°37.46 18.512656 4.585041 34.412539 2.791947
2003-09-17 07:21:38 51°9.14 2°37.45 18.47135 4.584408 34.409016 2.724529
2003-09-17 07:21:42 51°9.14 2°37.44 18.462003 4.583986 34.406067 2.791947
2003-09-17 07:21:48 51°9.14 2°37.42 18.596267 4.583353 34.401944 2.758238
2003-09-17 07:21:54 51°9.14 2°37.4 18.561579 4.583142 34.402571 2.758238
2003-09-17 07:21:58 51°9.14 2°37.39 18.389949 4.583142 34.404973 2.724529
2003-09-17 07:22:08 51°9.14 2°37.37 18.517409 4.582826 34.404713 2.724529
2003-09-17 07:22:14 51°9.14 2°37.35 18.481648 4.581982 34.401216 2.724529
2003-09-17 07:22:18 51°9.14 2°37.34 18.616288 4.58156 34.400669 2.65711
2003-09-17 07:22:22 51°9.14 2°37.34 18.547203 4.581243 34.401009 2.690819
2003-09-17 07:22:28 51°9.15 2°37.32 18.513193 4.581032 34.402838 2.65711
2003-09-17 07:22:34 51°9.15 2°37.31 18.513193 4.581032 34.402838 2.65711
2003-09-17 07:22:38 51°9.15 2°37.3 18.376242 4.580294 34.400229 2.65711
2003-09-17 07:22:42 51°9.15 2°37.3 18.366011 4.580716 34.405583 2.589691
2003-09-17 07:22:48 51°9.15 2°37.29 18.365597 4.579661 34.401511 2.589691
2003-09-17 07:22:54 51°9.16 2°37.28 18.368207 4.579344 34.40065 2.589691
2003-09-17 07:22:58 51°9.16 2°37.27 18.373177 4.578922 34.397098 2.555982
2003-09-17 07:23:02 51°9.16 2°37.26 18.373177 4.578922 34.397098 2.555982
2003-09-17 07:23:08 51°9.16 2°37.26 18.374627 4.579028 34.397986 2.825657
2003-09-17 07:23:14 51°9.16 2°37.25 18.373508 4.578817 34.396811 2.724529
2003-09-17 07:23:18 51°9.16 2°37.25 18.372804 4.578606 34.395636 2.65711
2003-09-17 07:23:22 51°9.16 2°37.24 18.371313 4.578606 34.39804 2.690819
2003-09-17 07:23:28 51°9.16 2°37.24 18.373053 4.578289 34.394775 2.690819
2003-09-17 07:23:32 51°9.16 2°37.24 18.373053 4.578289 34.394775 2.690819
2003-09-17 07:23:38 51°9.16 2°37.24 18.372514 4.577234 34.384692 2.690819
2003-09-17 07:23:42 51°9.16 2°37.24 18.374585 4.577129 34.384405 2.690819
2003-09-17 07:23:48 51°9.16 2°37.24 18.376407 4.576601 34.381166 2.690819
2003-09-17 07:23:54 51°9.16 2°37.24 18.374916 4.576812 34.383543 2.65711
2003-09-17 07:23:58 51°9.16 2°37.24 18.376615 4.57639 34.380592 2.6234
2003-09-17 07:24:04 51°9.16 2°37.24 18.376615 4.57639 34.380592 2.6234
2003-09-17 07:24:08 51°9.16 2°37.24 18.377112 4.576918 34.384431 2.690819
2003-09-17 07:24:14 51°9.16 2°37.24 18.377112 4.576918 34.382629 2.65711
2003-09-17 07:24:18 51°9.16 2°37.24 18.378064 4.57639 34.37879 2.65711
2003-09-17 07:24:24 51°9.16 2°37.24 18.378892 4.576918 34.382028 2.6234
2003-09-17 07:24:28 51°9.16 2°37.23 18.378147 4.577023 34.382315 2.65711
2003-09-17 07:24:34 51°9.16 2°37.23 18.378147 4.577023 34.382315 2.65711
2003-09-17 07:24:38 51°9.16 2°37.23 18.379596 4.576918 34.382028 2.6234
2003-09-17 07:24:44 51°9.16 2°37.23 18.378975 4.576917 34.380827 2.589691
2003-09-17 07:24:48 51°9.16 2°37.23 18.378975 4.576917 34.379625 2.589691
2003-09-17 07:24:54 51°9.16 2°37.23 18.379348 4.577128 34.380801 2.6234
2003-09-17 07:24:58 51°9.16 2°37.23 18.380922 4.577762 34.386128 2.589691
2003-09-17 07:25:04 51°9.16 2°37.23 18.380922 4.577762 34.386128 2.589691
2003-09-17 07:25:10 51°9.16 2°37.22 18.379514 4.577867 34.386416 2.589691
2003-09-17 07:25:14 51°9.16 2°37.22 18.380632 4.577656 34.38464 2.589691
2003-09-17 07:25:18 51°9.16 2°37.22 18.381916 4.578184 34.389079 2.589691
2003-09-17 07:25:24 51°9.16 2°37.22 18.380425 4.577762 34.385528 2.589691
2003-09-17 07:25:28 51°9.16 2°37.22 18.380839 4.578078 34.38699 2.589691
2003-09-17 07:25:34 51°9.16 2°37.22 18.380839 4.578078 34.38699 2.589691
2003-09-17 07:25:38 51°9.16 2°37.22 18.381294 4.578606 34.39143 2.589691
2003-09-17 07:25:44 51°9.16 2°37.21 18.381253 4.578395 34.390855 2.589691
2003-09-17 07:25:48 51°9.16 2°37.21 18.38175 4.578606 34.392631 2.589691
2003-09-17 07:25:54 51°9.16 2°37.21 18.382661 4.578606 34.390829 2.6234
2003-09-17 07:25:58 51°9.16 2°37.21 18.382371 4.577867 34.386416 2.589691
2003-09-17 07:26:02 51°9.16 2°37.21 18.382371 4.577867 34.386416 2.589691
2003-09-17 07:26:08 51°9.16 2°37.2 18.383324 4.578078 34.388191 2.6234
2003-09-17 07:26:14 51°9.16 2°37.2 18.382578 4.578711 34.391116 2.589691
2003-09-17 07:26:18 51°9.16 2°37.2 18.382744 4.578711 34.391116 2.65711
2003-09-17 07:26:24 51°9.16 2°37.2 18.383282 4.578289 34.388766 2.65711
2003-09-17 07:26:28 51°9.16 2°37.2 18.383324 4.578606 34.390829 2.690819
2003-09-17 07:26:34 51°9.16 2°37.2 18.383324 4.578606 34.390829 2.690819
2003-09-17 07:26:38 51°9.17 2°37.19 18.384856 4.579028 34.392578 2.690819
2003-09-17 07:26:42 51°9.17 2°37.19 18.38411 4.578711 34.390515 2.65711
2003-09-17 07:26:48 51°9.17 2°37.19 18.384235 4.578922 34.39169 2.6234
2003-09-17 07:26:54 51°9.17 2°37.19 18.384773 4.579239 34.394955 2.65711
2003-09-17 07:26:58 51°9.17 2°37.19 18.385684 4.578606 34.389627 2.65711
2003-09-17 07:27:02 51°9.17 2°37.18 18.385684 4.578606 34.389627 2.65711
2003-09-17 07:27:08 51°9.17 2°37.18 18.386761 4.579239 34.39135 2.724529
2003-09-17 07:27:14 51°9.17 2°37.18 18.388293 4.579028 34.391977 2.65711
2003-09-17 07:27:18 51°9.17 2°37.18 18.386802 4.579028 34.392578 2.65711
2003-09-17 07:27:22 51°9.17 2°37.18 18.385146 4.578922 34.39169 2.65711
2003-09-17 07:27:28 51°9.17 2°37.17 18.386181 4.579133 34.391664 2.724529
2003-09-17 07:27:32 51°9.17 2°37.17 18.386181 4.579133 34.391664 2.724529
2003-09-17 07:27:38 51°9.17 2°37.17 18.386347 4.57945 34.393727 2.724529
2003-09-17 07:27:42 51°9.17 2°37.17 18.389742 4.579555 34.394014 2.690819
2003-09-17 07:27:48 51°9.17 2°37.17 18.392682 4.579872 34.395476 2.690819
2003-09-17 07:27:54 51°9.17 2°37.16 18.396201 4.579344 34.392238 2.690819
2003-09-17 07:27:58 51°9.17 2°37.16 18.399969 4.579977 34.396964 2.724529
2003-09-17 07:28:02 51°9.17 2°37.16 18.399969 4.579977 34.396964 2.724529
2003-09-17 07:28:08 51°9.17 2°37.16 18.401625 4.579555 34.392812 2.724529
2003-09-17 07:28:12 51°9.17 2°37.16 18.397982 4.579133 34.391063 2.724529
2003-09-17 07:28:18 51°9.17 2°37.15 18.397402 4.579661 34.393099 2.791947
2003-09-17 07:28:26 51°9.17 2°37.15 18.395001 4.579977 34.393961 2.758238
2003-09-17 07:28:32 51°9.17 2°37.15 18.393096 4.580188 34.392733 2.758238
2003-09-17 07:28:36 51°9.17 2°37.15 18.389204 4.580399 34.390905 2.758238
2003-09-17 07:28:42 51°9.17 2°37.14 18.388003 4.58061 34.39268 2.724529
2003-09-17 07:28:46 51°9.17 2°37.14 18.387092 4.580504 34.391192 2.690819
2003-09-17 07:28:52 51°9.17 2°37.13 18.386512 4.580188 34.390331 2.758238
2003-09-17 07:28:56 51°9.17 2°37.13 18.386512 4.580188 34.390331 2.758238
2003-09-17 07:29:02 51°9.17 2°37.12 18.386264 4.580082 34.389443 2.690819
2003-09-17 07:29:06 51°9.17 2°37.12 18.385891 4.580082 34.391845 2.6234
2003-09-17 07:29:12 51°9.17 2°37.11 18.384483 4.579977 34.392759 2.65711
2003-09-17 07:29:18 51°9.16 2°37.11 18.382661 4.579238 34.388347 2.6234
2003-09-17 07:29:22 51°9.16 2°37.1 18.38117 4.579344 34.391037 2.6234
2003-09-17 07:29:26 51°9.16 2°37.1 18.38117 4.579344 34.391037 2.6234
2003-09-17 07:29:32 51°9.16 2°37.09 18.380922 4.579766 34.393987 2.65711
2003-09-17 07:29:36 51°9.15 2°37.09 18.382827 4.579661 34.3937 2.65711
2003-09-17 07:29:42 51°9.15 2°37.08 18.385353 4.579977 34.396964 2.690819
2003-09-17 07:29:46 51°9.14 2°37.08 18.389369 4.579661 34.394902 2.690819
2003-09-17 07:29:52 51°9.14 2°37.08 18.392061 4.579133 34.392265 2.791947
2003-09-17 07:29:58 51°9.13 2°37.08 18.392061 4.579133 34.392265 2.791947
2003-09-17 07:30:02 51°9.13 2°37.07 18.393551 4.578711 34.390515 2.825657
2003-09-17 07:30:06 51°9.13 2°37.07 18.392268 4.5785 34.388739 2.859366
2003-09-17 07:30:12 51°9.12 2°37.07 18.388997 4.579239 34.394354 2.825657
2003-09-17 07:30:18 51°9.12 2°37.08 18.386512 4.579239 34.39135 2.859366
2003-09-17 07:30:22 51°9.11 2°37.08 18.383945 4.579555 34.392212 2.859366
2003-09-17 07:30:26 51°9.11 2°37.08 18.383945 4.579555 34.392212 2.859366
2003-09-17 07:30:32 51°9.1 2°37.09 18.382495 4.579977 34.393961 2.859366
2003-09-17 07:30:38 51°9.1 2°37.09 18.376407 4.579555 34.39101 2.859366
2003-09-17 07:30:46 51°9.1 2°37.1 18.367834 4.579555 34.392812 2.791947
2003-09-17 07:30:52 51°9.09 2°37.11 18.363402 4.579661 34.394902 2.758238
2003-09-17 07:30:58 51°9.09 2°37.12 18.363402 4.579661 34.394902 2.758238
2003-09-17 07:31:02 51°9.09 2°37.12 18.360999 4.579239 34.391951 2.724529
2003-09-17 07:31:06 51°9.09 2°37.13 18.359798 4.579344 34.395242 2.690819
2003-09-17 07:31:12 51°9.09 2°37.13 18.357685 4.5785 34.391743 2.724529
2003-09-17 07:31:18 51°9.09 2°37.14 18.356028 4.578078 34.389994 2.724529
2003-09-17 07:31:22 51°9.09 2°37.15 18.355986 4.57734 34.387984 2.6234
2003-09-17 07:31:26 51°9.09 2°37.15 18.355986 4.57734 34.387984 2.6234
2003-09-17 07:31:32 51°9.1 2°37.16 18.354288 4.576707 34.38626 2.65711
2003-09-17 07:31:38 51°9.1 2°37.16 18.352175 4.57734 34.391589 2.555982
2003-09-17 07:31:42 51°9.1 2°37.16 18.350393 4.576496 34.38809 2.488563
2003-09-17 07:31:46 51°9.1 2°37.17 18.350766 4.576601 34.389579 2.421144
2003-09-17 07:31:52 51°9.1 2°37.17 18.349109 4.576179 34.387228 2.421144
2003-09-17 07:31:56 51°9.1 2°37.17 18.349109 4.576179 34.387228 2.421144
2003-09-17 07:32:02 51°9.1 2°37.18 18.348488 4.576812 34.392558 2.421144
2003-09-17 07:32:06 51°9.11 2°37.18 18.347535 4.575757 34.386079 2.387435
2003-09-17 07:32:12 51°9.11 2°37.18 18.348736 4.575968 34.387856 2.421144
2003-09-17 07:32:18 51°9.11 2°37.18 18.351056 4.575863 34.38817 2.522272
2003-09-17 07:32:28 51°9.11 2°37.18 18.353169 4.575124 34.384356 2.522272
2003-09-17 07:32:32 51°9.11 2°37.18 18.353169 4.575124 34.384356 2.522272
2003-09-17 07:32:38 51°9.11 2°37.18 18.353708 4.575019 34.385271 2.522272
2003-09-17 07:32:42 51°9.11 2°37.18 18.352714 4.575019 34.38467 2.522272
2003-09-17 07:32:46 51°9.11 2°37.19 18.351595 4.57428 34.379052 2.522272
2003-09-17 07:32:54 51°9.11 2°37.19 18.350518 4.575019 34.384069 2.522272
2003-09-17 07:32:58 51°9.11 2°37.19 18.350683 4.57523 34.385244 2.522272
2003-09-17 07:33:02 51°9.11 2°37.19 18.350683 4.57523 34.385244 2.522272
2003-09-17 07:33:08 51°9.11 2°37.19 18.351346 4.57523 34.384643 2.522272
2003-09-17 07:33:14 51°9.11 2°37.19 18.352175 4.575019 34.382265 2.488563
2003-09-17 07:33:18 51°9.11 2°37.19 18.352548 4.575441 34.385819 2.488563
2003-09-17 07:33:22 51°9.11 2°37.19 18.351512 4.57523 34.384643 2.488563
2003-09-17 07:33:28 51°9.11 2°37.19 18.351636 4.574913 34.381978 2.454853
2003-09-17 07:33:32 51°9.11 2°37.19 18.351636 4.574913 34.381978 2.454853
2003-09-17 07:33:38 51°9.12 2°37.19 18.352341 4.575757 34.389686 2.488563
2003-09-17 07:33:42 51°9.12 2°37.2 18.351719 4.575652 34.387596 2.454853
2003-09-17 07:33:48 51°9.12 2°37.2 18.352879 4.575441 34.385819 2.454853
2003-09-17 07:33:52 51°9.12 2°37.2 18.353708 4.575335 34.384329 2.454853
2003-09-17 07:33:58 51°9.12 2°37.2 18.354371 4.575124 34.383154 2.454853
2003-09-17 07:34:08 51°9.12 2°37.2 18.353749 4.575124 34.382553 2.454853
2003-09-17 07:34:12 51°9.12 2°37.2 18.354288 4.575124 34.383755 2.421144
2003-09-17 07:34:18 51°9.12 2°37.2 18.354661 4.575441 34.385819 2.454853
2003-09-17 07:34:22 51°9.12 2°37.2 18.354536 4.575335 34.384329 2.421144
2003-09-17 07:34:28 51°9.12 2°37.2 18.354205 4.575652 34.387596 2.454853
2003-09-17 07:34:34 51°9.12 2°37.2 18.354205 4.575652 34.387596 2.454853
2003-09-17 07:34:38 51°9.12 2°37.2 18.355282 4.575652 34.386393 2.454853
2003-09-17 07:34:44 51°9.12 2°37.2 18.356484 4.575757 34.386681 2.454853
2003-09-17 07:34:48 51°9.12 2°37.2 18.357229 4.576074 34.389346 2.421144
2003-09-17 07:34:54 51°9.12 2°37.2 18.356774 4.575652 34.386393 2.454853
2003-09-17 07:34:58 51°9.12 2°37.2 18.356939 4.575757 34.385478 2.454853
2003-09-17 07:35:02 51°9.12 2°37.2 18.356939 4.575757 34.385478 2.454853
2003-09-17 07:35:08 51°9.12 2°37.2 18.356401 4.575968 34.388457 2.454853
2003-09-17 07:35:12 51°9.12 2°37.2 18.357022 4.575863 34.386968 2.454853
2003-09-17 07:35:18 51°9.12 2°37.2 18.357809 4.575757 34.386079 2.454853
2003-09-17 07:35:22 51°9.12 2°37.2 18.357022 4.576074 34.388744 2.454853
2003-09-17 07:35:28 51°9.12 2°37.2 18.357105 4.575863 34.386968 2.454853
2003-09-17 07:35:34 51°9.12 2°37.2 18.357105 4.575863 34.386968 2.454853
2003-09-17 07:35:38 51°9.12 2°37.2 18.357022 4.576074 34.388143 2.454853
2003-09-17 07:35:42 51°9.12 2°37.2 18.357519 4.57639 34.390207 2.454853
2003-09-17 07:35:48 51°9.12 2°37.21 18.358306 4.576074 34.387542 2.421144
2003-09-17 07:35:54 51°9.12 2°37.21 18.358431 4.576074 34.387542 2.421144
2003-09-17 07:35:58 51°9.12 2°37.21 18.358721 4.576179 34.387228 2.454853
2003-09-17 07:36:02 51°9.12 2°37.21 18.358721 4.576179 34.387228 2.454853
2003-09-17 07:36:08 51°9.12 2°37.21 18.359093 4.576918 34.394048 2.421144
2003-09-17 07:36:12 51°9.12 2°37.21 18.358762 4.575863 34.385165 2.421144
2003-09-17 07:36:18 51°9.12 2°37.21 18.359508 4.576707 34.391069 2.454853
2003-09-17 07:36:22 51°9.12 2°37.21 18.359632 4.576496 34.389893 2.421144
2003-09-17 07:36:28 51°9.12 2°37.21 18.394173 4.57639 34.388404 2.454853
2003-09-17 07:36:34 51°9.12 2°37.21 18.394173 4.57639 34.388404 2.454853
2003-09-17 07:36:38 51°9.12 2°37.21 18.361248 4.576707 34.390468 2.421144
2003-09-17 07:36:42 51°9.12 2°37.21 18.361662 4.576074 34.385739 2.421144
2003-09-17 07:36:48 51°9.12 2°37.21 18.361538 4.57639 34.389606 2.454853
2003-09-17 07:36:54 51°9.12 2°37.21 18.361496 4.57639 34.388404 2.454853
2003-09-17 07:36:58 51°9.12 2°37.21 18.362242 4.576707 34.389866 2.454853
2003-09-17 07:37:02 51°9.12 2°37.21 18.362242 4.576707 34.389866 2.454853
2003-09-17 07:37:08 51°9.13 2°37.21 18.363153 4.576707 34.391069 2.454853
2003-09-17 07:37:14 51°9.13 2°37.21 18.36336 4.576918 34.391042 2.454853
2003-09-17 07:37:18 51°9.13 2°37.21 18.363112 4.576707 34.389265 2.454853
2003-09-17 07:37:22 51°9.13 2°37.21 18.363857 4.577129 34.392818 2.454853
2003-09-17 07:37:28 51°9.13 2°37.21 18.363692 4.576601 34.387175 2.454853
2003-09-17 07:37:32 51°9.13 2°37.21 18.363692 4.576601 34.387175 2.454853
2003-09-17 07:37:38 51°9.13 2°37.21 18.365059 4.577129 34.391616 2.488563
2003-09-17 07:37:42 51°9.13 2°37.21 18.364727 4.576496 34.385686 2.454853
2003-09-17 07:37:48 51°9.13 2°37.21 18.364562 4.577023 34.390728 2.488563
2003-09-17 07:37:54 51°9.13 2°37.21 18.363692 4.576918 34.38984 2.488563
2003-09-17 07:37:58 51°9.13 2°37.2 18.363443 4.577023 34.389526 2.488563
2003-09-17 07:38:02 51°9.13 2°37.2 18.363443 4.577023 34.389526 2.488563
2003-09-17 07:38:08 51°9.13 2°37.2 18.364147 4.577023 34.390127 2.488563
2003-09-17 07:38:14 51°9.13 2°37.2 18.363277 4.576812 34.38775 2.488563
2003-09-17 07:38:18 51°9.13 2°37.2 18.36423 4.57734 34.391589 2.454853
2003-09-17 07:38:24 51°9.13 2°37.2 18.36394 4.577234 34.391302 2.454853
2003-09-17 07:38:28 51°9.13 2°37.2 18.364603 4.576918 34.38984 2.488563
2003-09-17 07:38:32 51°9.13 2°37.2 18.364603 4.576918 34.38984 2.488563
2003-09-17 07:38:38 51°9.13 2°37.2 18.365431 4.57734 34.392191 2.454853
2003-09-17 07:38:42 51°9.13 2°37.2 18.366384 4.576812 34.388351 2.488563
2003-09-17 07:38:48 51°9.13 2°37.2 18.366757 4.577234 34.391302 2.488563
2003-09-17 07:38:54 51°9.13 2°37.2 18.366715 4.577445 34.391276 2.454853
2003-09-17 07:38:58 51°9.13 2°37.2 18.367088 4.577023 34.390127 2.454853
2003-09-17 07:39:04 51°9.13 2°37.2 18.367088 4.577023 34.390127 2.454853
2003-09-17 07:39:08 51°9.13 2°37.2 18.36713 4.577129 34.389813 2.454853
2003-09-17 07:39:14 51°9.13 2°37.2 18.367544 4.577656 34.393052 2.454853
2003-09-17 07:39:18 51°9.13 2°37.2 18.366798 4.577762 34.393339 2.488563
2003-09-17 07:39:22 51°9.13 2°37.2 18.36771 4.57734 34.390387 2.454853
2003-09-17 07:39:28 51°9.13 2°37.2 18.368289 4.577551 34.391563 2.454853
2003-09-17 07:39:34 51°9.13 2°37.2 18.368289 4.577551 34.391563 2.454853
2003-09-17 07:39:38 51°9.13 2°37.2 18.368621 4.577445 34.391877 2.454853
2003-09-17 07:39:42 51°9.13 2°37.2 18.368911 4.577551 34.390962 2.454853
2003-09-17 07:39:48 51°9.13 2°37.2 18.368621 4.577234 34.387696 2.454853
2003-09-17 07:39:54 51°9.13 2°37.2 18.368828 4.578184 34.396291 2.454853
2003-09-17 07:39:58 51°9.13 2°37.2 18.369449 4.578184 34.395089 2.488563
2003-09-17 07:40:02 51°9.13 2°37.2 18.369449 4.578184 34.395089 2.488563
2003-09-17 07:40:08 51°9.13 2°37.2 18.369325 4.577867 34.392424 2.488563
2003-09-17 07:40:12 51°9.13 2°37.2 18.369863 4.578289 34.396578 2.454853
2003-09-17 07:40:18 51°9.13 2°37.2 18.369284 4.577867 34.391823 2.454853
2003-09-17 07:40:22 51°9.13 2°37.2 18.368745 4.577973 34.392711 2.421144
2003-09-17 07:40:28 51°9.13 2°37.2 18.369118 4.578078 34.393599 2.488563
2003-09-17 07:40:34 51°9.13 2°37.19 18.369118 4.578078 34.393599 2.488563
2003-09-17 07:40:38 51°9.13 2°37.19 18.369201 4.577867 34.391823 2.488563
2003-09-17 07:40:44 51°9.13 2°37.19 18.369159 4.577867 34.391823 2.454853
2003-09-17 07:40:48 51°9.13 2°37.19 18.369118 4.577551 34.388558 2.454853
2003-09-17 07:40:54 51°9.13 2°37.19 18.368372 4.577762 34.392137 2.454853
2003-09-17 07:40:58 51°9.13 2°37.19 18.367792 4.578184 34.395089 2.454853
2003-09-17 07:41:02 51°9.13 2°37.19 18.367792 4.578184 34.395089 2.454853
2003-09-17 07:41:08 51°9.13 2°37.19 18.36771 4.577867 34.391823 2.454853
2003-09-17 07:41:14 51°9.13 2°37.19 18.368 4.578078 34.393599 2.454853
2003-09-17 07:41:18 51°9.13 2°37.19 18.368082 4.578078 34.393599 2.454853
2003-09-17 07:41:22 51°9.13 2°37.19 18.368787 4.577867 34.393025 2.454853
2003-09-17 07:41:28 51°9.13 2°37.19 18.369946 4.577656 34.39185 2.454853
2003-09-17 07:41:34 51°9.13 2°37.19 18.369946 4.577656 34.39185 2.454853
2003-09-17 07:41:38 51°9.13 2°37.19 18.370319 4.577867 34.393025 2.454853
2003-09-17 07:41:42 51°9.13 2°37.19 18.369449 4.57734 34.389186 2.454853
2003-09-17 07:41:48 51°9.13 2°37.19 18.369201 4.577762 34.391536 2.488563
2003-09-17 07:41:54 51°9.13 2°37.19 18.368994 4.577762 34.392137 2.454853
2003-09-17 07:41:58 51°9.13 2°37.19 18.369656 4.577551 34.389159 2.488563
2003-09-17 07:42:02 51°9.13 2°37.19 18.369656 4.577551 34.389159 2.488563
2003-09-17 07:42:08 51°9.13 2°37.18 18.369284 4.578078 34.393599 2.454853
2003-09-17 07:42:14 51°9.13 2°37.18 18.369242 4.577973 34.391509 2.488563
2003-09-17 07:42:18 51°9.13 2°37.18 18.368497 4.577973 34.392711 2.454853
2003-09-17 07:42:22 51°9.13 2°37.18 18.368828 4.577973 34.391509 2.454853
2003-09-17 07:42:28 51°9.13 2°37.18 18.369201 4.578184 34.394488 2.454853
2003-09-17 07:42:34 51°9.13 2°37.18 18.369201 4.578184 34.394488 2.454853
2003-09-17 07:42:38 51°9.13 2°37.18 18.368787 4.57639 34.37879 2.454853
2003-09-17 07:42:42 51°9.13 2°37.18 18.369408 4.578606 34.39804 2.454853
2003-09-17 07:42:48 51°9.13 2°37.18 18.369574 4.577973 34.392711 2.454853
2003-09-17 07:42:54 51°9.13 2°37.18 18.369656 4.577762 34.390935 2.454853
2003-09-17 07:42:58 51°9.13 2°37.18 18.37094 4.5785 34.396551 2.421144
2003-09-17 07:43:02 51°9.13 2°37.18 18.37094 4.5785 34.396551 2.421144
2003-09-17 07:43:08 51°9.13 2°37.18 18.370402 4.578078 34.392398 2.454853
2003-09-17 07:43:12 51°9.13 2°37.18 18.370236 4.5785 34.396551 2.454853
2003-09-17 07:43:18 51°9.13 2°37.18 18.370775 4.578184 34.394488 2.454853
2003-09-17 07:43:22 51°9.13 2°37.18 18.371603 4.578289 34.395376 2.421144
2003-09-17 07:43:28 51°9.13 2°37.18 18.372431 4.578606 34.396838 2.454853
2003-09-17 07:43:34 51°9.13 2°37.17 18.372431 4.578606 34.396838 2.454853
2003-09-17 07:43:38 51°9.13 2°37.17 18.372183 4.578078 34.392998 2.454853
2003-09-17 07:43:42 51°9.13 2°37.17 18.372721 4.578184 34.393887 2.454853
2003-09-17 07:43:48 51°9.13 2°37.17 18.373343 4.578606 34.396838 2.454853
2003-09-17 07:43:52 51°9.13 2°37.17 18.373384 4.578395 34.395062 2.454853
2003-09-17 07:43:58 51°9.13 2°37.17 18.37297 4.5785 34.394748 2.454853
2003-09-17 07:44:02 51°9.13 2°37.17 18.37297 4.5785 34.394748 2.454853
2003-09-17 07:44:08 51°9.13 2°37.17 18.373633 4.578078 34.391797 2.454853
2003-09-17 07:44:14 51°9.13 2°37.17 18.37355 4.5785 34.395349 2.454853
2003-09-17 07:44:18 51°9.13 2°37.17 18.373798 4.578184 34.392685 2.454853
2003-09-17 07:44:22 51°9.13 2°37.17 18.373964 4.5785 34.394147 2.454853
2003-09-17 07:44:28 51°9.13 2°37.17 18.374337 4.578184 34.391483 2.454853
2003-09-17 07:44:32 51°9.13 2°37.17 18.374337 4.578184 34.391483 2.454853
2003-09-17 07:44:38 51°9.13 2°37.17 18.375082 4.578817 34.396811 2.454853
2003-09-17 07:44:42 51°9.13 2°37.17 18.374916 4.578606 34.394434 2.454853
2003-09-17 07:44:48 51°9.13 2°37.17 18.375331 4.578922 34.397098 2.454853
2003-09-17 07:44:52 51°9.13 2°37.16 18.375206 4.578395 34.393259 2.454853
2003-09-17 07:44:58 51°9.13 2°37.16 18.375579 4.578711 34.39412 2.454853
2003-09-17 07:45:02 51°9.13 2°37.16 18.375579 4.578711 34.39412 2.454853
2003-09-17 07:45:08 51°9.13 2°37.16 18.376366 4.5785 34.392945 2.488563
2003-09-17 07:45:14 51°9.13 2°37.16 18.377567 4.578711 34.394721 2.488563
2003-09-17 07:45:18 51°9.13 2°37.16 18.376946 4.578817 34.395609 2.454853
2003-09-17 07:45:24 51°9.13 2°37.16 18.376946 4.578606 34.39143 2.488563
2003-09-17 07:45:28 51°9.13 2°37.16 18.376946 4.579028 34.395582 2.454853